Observation data for Tahoka on 11/18/2019      Previous  Date       Current Mesonet Observations  Soil Data  Daily Summary Page  Observations in Plain Language
KTAS 180600Z 20006KT 04/01 A3009 RMK A01 T00430011  RH  080%=      5-min Rain = 0
KTAS 180601Z 20005KT 04/01 A3009 RMK A01 T00440012  RH  079%=      5-min Rain = 0
KTAS 180602Z 19005KT 05/01 A3009 RMK A01 T00460012  RH  079%=      5-min Rain = 0
KTAS 180603Z 19004KT 05/01 A3009 RMK A01 T00480013  RH  078%=      5-min Rain = 0
KTAS 180604Z 19005KT 05/01 A3009 RMK A01 T00500013  RH  077%=      5-min Rain = 0
KTAS 180605Z 19005KT 05/01 A3009 RMK A01 T00510013  RH  076%=      5-min Rain = 0
KTAS 180606Z 19005KT 05/01 A3009 RMK A01 T00510012  RH  076%=      5-min Rain = 0
KTAS 180607Z 19005KT 05/01 A3009 RMK A01 T00510012  RH  076%=      5-min Rain = 0
KTAS 180608Z 19005KT 05/01 A3009 RMK A01 T00500011  RH  076%=      5-min Rain = 0
KTAS 180609Z 19005KT 05/01 A3009 RMK A01 T00490011  RH  076%=      5-min Rain = 0
KTAS 180610Z 19005KT 05/01 A3009 RMK A01 T00480010  RH  076%=      5-min Rain = 0
KTAS 180611Z 20005KT 05/01 A3009 RMK A01 T00460009  RH  077%=      5-min Rain = 0
KTAS 180612Z 20005KT 04/01 A3008 RMK A01 T00440008  RH  077%=      5-min Rain = 0
KTAS 180613Z 20005KT 04/01 A3008 RMK A01 T00430008  RH  078%=      5-min Rain = 0
KTAS 180614Z 20005KT 04/01 A3008 RMK A01 T00430009  RH  079%=      5-min Rain = 0
KTAS 180615Z 20005KT 04/01 A3008 RMK A01 T00430010  RH  079%=      5-min Rain = 0
KTAS 180616Z 20005KT 04/01 A3008 RMK A01 T00430010  RH  079%=      5-min Rain = 0
KTAS 180617Z 20005KT 04/01 A3008 RMK A01 T00440011  RH  079%=      5-min Rain = 0
KTAS 180618Z 20005KT 04/01 A3008 RMK A01 T00440010  RH  078%=      5-min Rain = 0
KTAS 180619Z 20005KT 05/01 A3008 RMK A01 T00450010  RH  078%=      5-min Rain = 0
KTAS 180620Z 20005KT 04/01 A3008 RMK A01 T00440010  RH  078%=      5-min Rain = 0
KTAS 180621Z 20005KT 04/01 A3008 RMK A01 T00430009  RH  078%=      5-min Rain = 0
KTAS 180622Z 20005KT 04/01 A3008 RMK A01 T00420008  RH  079%=      5-min Rain = 0
KTAS 180623Z 20005KT 04/01 A3008 RMK A01 T00410008  RH  079%=      5-min Rain = 0
KTAS 180624Z 20005KT 04/01 A3008 RMK A01 T00400008  RH  080%=      5-min Rain = 0
KTAS 180625Z 20005KT 04/01 A3008 RMK A01 T00400008  RH  080%=      5-min Rain = 0
KTAS 180626Z 21005KT 04/01 A3008 RMK A01 T00390008  RH  080%=      5-min Rain = 0
KTAS 180627Z 21005KT 04/01 A3008 RMK A01 T00390008  RH  080%=      5-min Rain = 0
KTAS 180628Z 21005KT 04/01 A3008 RMK A01 T00390007  RH  080%=      5-min Rain = 0
KTAS 180629Z 21006KT 04/01 A3008 RMK A01 T00380007  RH  080%=      5-min Rain = 0
KTAS 180630Z 21006KT 04/01 A3008 RMK A01 T00380008  RH  081%=      5-min Rain = 0
KTAS 180631Z 21006KT 04/01 A3007 RMK A01 T00380008  RH  081%=      5-min Rain = 0
KTAS 180632Z 21005KT 04/01 A3007 RMK A01 T00380008  RH  081%=      5-min Rain = 0
KTAS 180633Z 21005KT 04/01 A3007 RMK A01 T00380008  RH  081%=      5-min Rain = 0
KTAS 180634Z 21005KT 04/01 A3007 RMK A01 T00380008  RH  081%=      5-min Rain = 0
KTAS 180635Z 21005KT 04/01 A3007 RMK A01 T00380008  RH  081%=      5-min Rain = 0
KTAS 180636Z 21005KT 04/01 A3007 RMK A01 T00380008  RH  081%=      5-min Rain = 0
KTAS 180637Z 21006KT 04/01 A3007 RMK A01 T00380009  RH  081%=      5-min Rain = 0
KTAS 180638Z 21006KT 04/01 A3007 RMK A01 T00380008  RH  081%=      5-min Rain = 0
KTAS 180639Z 21006KT 04/01 A3007 RMK A01 T00360006  RH  081%=      5-min Rain = 0
KTAS 180640Z 21006KT 04/01 A3007 RMK A01 T00360006  RH  081%=      5-min Rain = 0
KTAS 180641Z 21006KT 04/01 A3007 RMK A01 T00350007  RH  082%=      5-min Rain = 0
KTAS 180642Z 21006KT 04/01 A3007 RMK A01 T00350007  RH  082%=      5-min Rain = 0
KTAS 180643Z 21006KT 03/01 A3007 RMK A01 T00340006  RH  082%=      5-min Rain = 0
KTAS 180644Z 21006KT 03/01 A3007 RMK A01 T00340006  RH  082%=      5-min Rain = 0
KTAS 180645Z 21005KT 03/01 A3007 RMK A01 T00340006  RH  082%=      5-min Rain = 0
KTAS 180646Z 21005KT 03/01 A3007 RMK A01 T00340007  RH  082%=      5-min Rain = 0
KTAS 180647Z 21005KT 04/01 A3007 RMK A01 T00350008  RH  082%=      5-min Rain = 0
KTAS 180648Z 21006KT 04/01 A3007 RMK A01 T00360008  RH  082%=      5-min Rain = 0
KTAS 180649Z 21006KT 04/01 A3007 RMK A01 T00360008  RH  082%=      5-min Rain = 0
KTAS 180650Z 21006KT 04/01 A3006 RMK A01 T00370008  RH  081%=      5-min Rain = 0
KTAS 180651Z 21006KT 04/01 A3006 RMK A01 T00370008  RH  081%=      5-min Rain = 0
KTAS 180652Z 21006KT 04/01 A3006 RMK A01 T00360007  RH  081%=      5-min Rain = 0
KTAS 180653Z 21006KT 04/01 A3006 RMK A01 T00360007  RH  081%=      5-min Rain = 0
KTAS 180654Z 21006KT 04/01 A3006 RMK A01 T00350007  RH  082%=      5-min Rain = 0
KTAS 180655Z 21006KT 04/01 A3006 RMK A01 T00360007  RH  082%=      5-min Rain = 0
KTAS 180656Z 21005KT 04/01 A3006 RMK A01 T00360008  RH  082%=      5-min Rain = 0
KTAS 180657Z 21006KT 04/01 A3006 RMK A01 T00370008  RH  082%=      5-min Rain = 0
KTAS 180658Z 21006KT 04/01 A3006 RMK A01 T00380008  RH  081%=      5-min Rain = 0
KTAS 180659Z 21006KT 04/01 A3006 RMK A01 T00380008  RH  081%=      5-min Rain = 0
KTAS 180700Z 21006KT 04/01 A3006 RMK A01 T00380008  RH  081%=      5-min Rain = 0
KTAS 180701Z 21006KT 04/01 A3006 RMK A01 T00370008  RH  081%=      5-min Rain = 0
KTAS 180702Z 21006KT 04/01 A3006 RMK A01 T00360006  RH  081%=      5-min Rain = 0
KTAS 180703Z 21005KT 03/01 A3006 RMK A01 T00340005  RH  081%=      5-min Rain = 0
KTAS 180704Z 21006KT 03/01 A3006 RMK A01 T00330005  RH  082%=      5-min Rain = 0
KTAS 180705Z 21006KT 03/01 A3006 RMK A01 T00320005  RH  082%=      5-min Rain = 0
KTAS 180706Z 21006KT 03/01 A3006 RMK A01 T00310005  RH  083%=      5-min Rain = 0
KTAS 180707Z 21006KT 03/00 A3005 RMK A01 T00300004  RH  083%=      5-min Rain = 0
KTAS 180708Z 21006KT 03/00 A3005 RMK A01 T00300004  RH  083%=      5-min Rain = 0
KTAS 180709Z 21006KT 03/00 A3005 RMK A01 T00290004  RH  084%=      5-min Rain = 0
KTAS 180710Z 21006KT 03/00 A3005 RMK A01 T00280004  RH  084%=      5-min Rain = 0
KTAS 180711Z 21006KT 03/00 A3005 RMK A01 T00280004  RH  084%=      5-min Rain = 0
KTAS 180712Z 22007KT 03/01 A3005 RMK A01 T00280005  RH  085%=      5-min Rain = 0
KTAS 180713Z 22006KT 03/00 A3005 RMK A01 T00270004  RH  085%=      5-min Rain = 0
KTAS 180714Z 22006KT 03/00 A3005 RMK A01 T00270004  RH  085%=      5-min Rain = 0
KTAS 180715Z 22006KT 03/01 A3005 RMK A01 T00270005  RH  085%=      5-min Rain = 0
KTAS 180716Z 22007KT 03/01 A3005 RMK A01 T00270005  RH  085%=      5-min Rain = 0
KTAS 180717Z 22007KT 03/01 A3005 RMK A01 T00270005  RH  085%=      5-min Rain = 0
KTAS 180718Z 22007KT 03/01 A3005 RMK A01 T00270005  RH  086%=      5-min Rain = 0
KTAS 180719Z 22007KT 03/01 A3005 RMK A01 T00280006  RH  086%=      5-min Rain = 0
KTAS 180720Z 22007KT 03/01 A3005 RMK A01 T00280007  RH  086%=      5-min Rain = 0
KTAS 180721Z 22007KT 03/01 A3005 RMK A01 T00290008  RH  086%=      5-min Rain = 0
KTAS 180722Z 22007KT 03/01 A3005 RMK A01 T00300009  RH  086%=      5-min Rain = 0
KTAS 180723Z 22007KT 03/01 A3005 RMK A01 T00310009  RH  086%=      5-min Rain = 0
KTAS 180724Z 22007KT 03/01 A3005 RMK A01 T00320010  RH  086%=      5-min Rain = 0
KTAS 180725Z 22007KT 03/01 A3005 RMK A01 T00330010  RH  085%=      5-min Rain = 0
KTAS 180726Z 23007KT 03/01 A3005 RMK A01 T00340011  RH  085%=      5-min Rain = 0
KTAS 180727Z 23007KT 03/01 A3005 RMK A01 T00340010  RH  084%=      5-min Rain = 0
KTAS 180728Z 23007KT 03/01 A3005 RMK A01 T00340010  RH  084%=      5-min Rain = 0
KTAS 180729Z 23007KT 04/01 A3004 RMK A01 T00350010  RH  084%=      5-min Rain = 0
KTAS 180730Z 23007KT 04/01 A3004 RMK A01 T00350011  RH  084%=      5-min Rain = 0
KTAS 180731Z 23007KT 03/01 A3004 RMK A01 T00340010  RH  084%=      5-min Rain = 0
KTAS 180732Z 23007KT 03/01 A3004 RMK A01 T00340009  RH  084%=      5-min Rain = 0
KTAS 180733Z 23007KT 03/01 A3004 RMK A01 T00330009  RH  084%=      5-min Rain = 0
KTAS 180734Z 23007KT 03/01 A3005 RMK A01 T00330009  RH  084%=      5-min Rain = 0
KTAS 180735Z 23007KT 03/01 A3005 RMK A01 T00330009  RH  084%=      5-min Rain = 0
KTAS 180736Z 23007KT 03/01 A3005 RMK A01 T00330009  RH  084%=      5-min Rain = 0
KTAS 180737Z 23007KT 03/01 A3005 RMK A01 T00340010  RH  084%=      5-min Rain = 0
KTAS 180738Z 23006KT 03/01 A3005 RMK A01 T00340009  RH  084%=      5-min Rain = 0
KTAS 180739Z 23006KT 03/01 A3005 RMK A01 T00330009  RH  084%=      5-min Rain = 0
KTAS 180740Z 23006KT 03/01 A3004 RMK A01 T00330009  RH  084%=      5-min Rain = 0
KTAS 180741Z 23005KT 03/01 A3004 RMK A01 T00330009  RH  084%=      5-min Rain = 0
KTAS 180742Z 23005KT 03/01 A3004 RMK A01 T00330009  RH  084%=      5-min Rain = 0
KTAS 180743Z 23005KT 03/01 A3004 RMK A01 T00330009  RH  084%=      5-min Rain = 0
KTAS 180744Z 23005KT 03/01 A3004 RMK A01 T00320008  RH  084%=      5-min Rain = 0
KTAS 180745Z 23005KT 03/01 A3004 RMK A01 T00320008  RH  084%=      5-min Rain = 0
KTAS 180746Z 23005KT 03/01 A3004 RMK A01 T00310007  RH  084%=      5-min Rain = 0
KTAS 180747Z 23005KT 03/01 A3004 RMK A01 T00310007  RH  084%=      5-min Rain = 0
KTAS 180748Z 23005KT 03/01 A3004 RMK A01 T00310008  RH  085%=      5-min Rain = 0
KTAS 180749Z 23005KT 03/01 A3004 RMK A01 T00310008  RH  085%=      5-min Rain = 0
KTAS 180750Z 23005KT 03/01 A3004 RMK A01 T00310007  RH  085%=      5-min Rain = 0
KTAS 180751Z 23005KT 03/01 A3004 RMK A01 T00310007  RH  084%=      5-min Rain = 0
KTAS 180752Z 23005KT 03/01 A3004 RMK A01 T00310007  RH  084%=      5-min Rain = 0
KTAS 180753Z 23005KT 03/01 A3004 RMK A01 T00310007  RH  084%=      5-min Rain = 0
KTAS 180754Z 23005KT 03/01 A3004 RMK A01 T00310007  RH  084%=      5-min Rain = 0
KTAS 180755Z 23005KT 03/01 A3004 RMK A01 T00320008  RH  084%=      5-min Rain = 0
KTAS 180756Z 23005KT 03/01 A3004 RMK A01 T00320007  RH  084%=      5-min Rain = 0
KTAS 180757Z 23005KT 03/01 A3004 RMK A01 T00310007  RH  084%=      5-min Rain = 0
KTAS 180758Z 23005KT 03/01 A3004 RMK A01 T00310007  RH  084%=      5-min Rain = 0
KTAS 180759Z 23004KT 03/01 A3003 RMK A01 T00310006  RH  084%=      5-min Rain = 0
KTAS 180800Z 23004KT 03/01 A3003 RMK A01 T00310007  RH  084%=      5-min Rain = 0
KTAS 180801Z 23004KT 03/01 A3003 RMK A01 T00310007  RH  084%=      5-min Rain = 0
KTAS 180802Z 23005KT 03/01 A3003 RMK A01 T00310007  RH  084%=      5-min Rain = 0
KTAS 180803Z 23005KT 03/01 A3003 RMK A01 T00310007  RH  084%=      5-min Rain = 0
KTAS 180804Z 23005KT 03/01 A3003 RMK A01 T00310006  RH  084%=      5-min Rain = 0
KTAS 180805Z 22005KT 03/01 A3003 RMK A01 T00320007  RH  084%=      5-min Rain = 0
KTAS 180806Z 22005KT 03/01 A3003 RMK A01 T00320007  RH  084%=      5-min Rain = 0
KTAS 180807Z 22006KT 03/01 A3003 RMK A01 T00320006  RH  083%=      5-min Rain = 0
KTAS 180808Z 22005KT 03/01 A3003 RMK A01 T00320006  RH  083%=      5-min Rain = 0
KTAS 180809Z 22006KT 03/01 A3003 RMK A01 T00320006  RH  083%=      5-min Rain = 0
KTAS 180810Z 22006KT 03/01 A3003 RMK A01 T00320006  RH  083%=      5-min Rain = 0
KTAS 180811Z 22006KT 03/01 A3003 RMK A01 T00320006  RH  083%=      5-min Rain = 0
KTAS 180812Z 22006KT 03/01 A3003 RMK A01 T00320005  RH  083%=      5-min Rain = 0
KTAS 180813Z 22006KT 03/01 A3003 RMK A01 T00310005  RH  083%=      5-min Rain = 0
KTAS 180814Z 23006KT 03/01 A3003 RMK A01 T00300005  RH  083%=      5-min Rain = 0
KTAS 180815Z 23006KT 03/01 A3003 RMK A01 T00300005  RH  084%=      5-min Rain = 0
KTAS 180816Z 23006KT 03/01 A3003 RMK A01 T00300005  RH  084%=      5-min Rain = 0
KTAS 180817Z 23006KT 03/01 A3003 RMK A01 T00300005  RH  084%=      5-min Rain = 0
KTAS 180818Z 23006KT 03/01 A3003 RMK A01 T00290005  RH  084%=      5-min Rain = 0
KTAS 180819Z 23006KT 03/00 A3003 RMK A01 T00280004  RH  084%=      5-min Rain = 0
KTAS 180820Z 23006KT 03/00 A3003 RMK A01 T00280004  RH  084%=      5-min Rain = 0
KTAS 180821Z 23006KT 03/00 A3003 RMK A01 T00280004  RH  084%=      5-min Rain = 0
KTAS 180822Z 23006KT 03/00 A3003 RMK A01 T00280004  RH  085%=      5-min Rain = 0
KTAS 180823Z 23006KT 03/00 A3003 RMK A01 T00280004  RH  085%=      5-min Rain = 0
KTAS 180824Z 23006KT 03/01 A3003 RMK A01 T00280005  RH  085%=      5-min Rain = 0
KTAS 180825Z 23007KT 03/01 A3003 RMK A01 T00280005  RH  085%=      5-min Rain = 0
KTAS 180826Z 23007KT 03/01 A3003 RMK A01 T00280005  RH  085%=      5-min Rain = 0
KTAS 180827Z 23007KT 03/01 A3003 RMK A01 T00290006  RH  085%=      5-min Rain = 0
KTAS 180828Z 23007KT 03/01 A3003 RMK A01 T00290006  RH  085%=      5-min Rain = 0
KTAS 180829Z 23007KT 03/01 A3003 RMK A01 T00300006  RH  085%=      5-min Rain = 0
KTAS 180830Z 23007KT 03/01 A3003 RMK A01 T00300006  RH  084%=      5-min Rain = 0
KTAS 180831Z 23007KT 03/01 A3003 RMK A01 T00300006  RH  084%=      5-min Rain = 0
KTAS 180832Z 23007KT 03/01 A3003 RMK A01 T00300006  RH  084%=      5-min Rain = 0
KTAS 180833Z 23007KT 03/01 A3003 RMK A01 T00290005  RH  084%=      5-min Rain = 0
KTAS 180834Z 23007KT 03/01 A3003 RMK A01 T00280005  RH  084%=      5-min Rain = 0
KTAS 180835Z 23007KT 03/00 A3003 RMK A01 T00280004  RH  085%=      5-min Rain = 0
KTAS 180836Z 23007KT 03/00 A3002 RMK A01 T00270004  RH  085%=      5-min Rain = 0
KTAS 180837Z 23007KT 03/00 A3002 RMK A01 T00270004  RH  085%=      5-min Rain = 0
KTAS 180838Z 23007KT 03/00 A3002 RMK A01 T00260004  RH  085%=      5-min Rain = 0
KTAS 180839Z 23007KT 03/00 A3002 RMK A01 T00260004  RH  085%=      5-min Rain = 0
KTAS 180840Z 23007KT 03/00 A3002 RMK A01 T00260004  RH  086%=      5-min Rain = 0
KTAS 180841Z 23007KT 03/00 A3002 RMK A01 T00260004  RH  086%=      5-min Rain = 0
KTAS 180842Z 23007KT 03/00 A3002 RMK A01 T00260004  RH  086%=      5-min Rain = 0
KTAS 180843Z 23007KT 03/01 A3002 RMK A01 T00260005  RH  086%=      5-min Rain = 0
KTAS 180844Z 23007KT 03/01 A3002 RMK A01 T00260005  RH  086%=      5-min Rain = 0
KTAS 180845Z 23007KT 03/01 A3002 RMK A01 T00270006  RH  086%=      5-min Rain = 0
KTAS 180846Z 23007KT 03/01 A3002 RMK A01 T00270006  RH  086%=      5-min Rain = 0
KTAS 180847Z 23007KT 03/01 A3002 RMK A01 T00280006  RH  086%=      5-min Rain = 0
KTAS 180848Z 23007KT 03/01 A3002 RMK A01 T00280007  RH  086%=      5-min Rain = 0
KTAS 180849Z 23007KT 03/01 A3002 RMK A01 T00290006  RH  085%=      5-min Rain = 0
KTAS 180850Z 23006KT 03/01 A3002 RMK A01 T00290006  RH  085%=      5-min Rain = 0
KTAS 180851Z 23006KT 03/01 A3002 RMK A01 T00290007  RH  085%=      5-min Rain = 0
KTAS 180852Z 23006KT 03/01 A3002 RMK A01 T00300007  RH  085%=      5-min Rain = 0
KTAS 180853Z 23006KT 03/01 A3002 RMK A01 T00300006  RH  085%=      5-min Rain = 0
KTAS 180854Z 23006KT 03/01 A3002 RMK A01 T00300006  RH  085%=      5-min Rain = 0
KTAS 180855Z 23006KT 03/01 A3002 RMK A01 T00300006  RH  085%=      5-min Rain = 0
KTAS 180856Z 23006KT 03/01 A3002 RMK A01 T00300006  RH  085%=      5-min Rain = 0
KTAS 180857Z 23006KT 03/01 A3002 RMK A01 T00290006  RH  085%=      5-min Rain = 0
KTAS 180858Z 23006KT 03/01 A3002 RMK A01 T00290005  RH  085%=      5-min Rain = 0
KTAS 180859Z 23007KT 03/01 A3002 RMK A01 T00280005  RH  085%=      5-min Rain = 0
KTAS 180900Z 23007KT 03/01 A3002 RMK A01 T00280005  RH  085%=      5-min Rain = 0
KTAS 180901Z 23006KT 03/01 A3002 RMK A01 T00270005  RH  085%=      5-min Rain = 0
KTAS 180902Z 23006KT 03/01 A3002 RMK A01 T00270005  RH  085%=      5-min Rain = 0
KTAS 180903Z 23007KT 03/01 A3002 RMK A01 T00270005  RH  086%=      5-min Rain = 0
KTAS 180904Z 23007KT 03/01 A3002 RMK A01 T00260005  RH  086%=      5-min Rain = 0
KTAS 180905Z 23007KT 03/01 A3002 RMK A01 T00260005  RH  086%=      5-min Rain = 0
KTAS 180906Z 23007KT 03/00 A3002 RMK A01 T00260004  RH  086%=      5-min Rain = 0
KTAS 180907Z 23007KT 03/00 A3002 RMK A01 T00250004  RH  086%=      5-min Rain = 0
KTAS 180908Z 23007KT 03/00 A3002 RMK A01 T00250003  RH  086%=      5-min Rain = 0
KTAS 180909Z 23007KT 02/00 A3002 RMK A01 T00240003  RH  086%=      5-min Rain = 0
KTAS 180910Z 23007KT 02/00 A3002 RMK A01 T00240003  RH  086%=      5-min Rain = 0
KTAS 180911Z 23007KT 02/00 A3002 RMK A01 T00240003  RH  086%=      5-min Rain = 0
KTAS 180912Z 23007KT 02/00 A3001 RMK A01 T00240004  RH  087%=      5-min Rain = 0
KTAS 180913Z 23007KT 03/00 A3001 RMK A01 T00250004  RH  087%=      5-min Rain = 0
KTAS 180914Z 23007KT 03/00 A3002 RMK A01 T00250004  RH  086%=      5-min Rain = 0
KTAS 180915Z 23007KT 03/01 A3001 RMK A01 T00250005  RH  086%=      5-min Rain = 0
KTAS 180916Z 23007KT 03/01 A3001 RMK A01 T00260005  RH  086%=      5-min Rain = 0
KTAS 180917Z 23007KT 03/01 A3001 RMK A01 T00260005  RH  086%=      5-min Rain = 0
KTAS 180918Z 23007KT 03/01 A3001 RMK A01 T00260006  RH  086%=      5-min Rain = 0
KTAS 180919Z 24007KT 03/01 A3001 RMK A01 T00280008  RH  086%=      5-min Rain = 0
KTAS 180920Z 24007KT 03/01 A3001 RMK A01 T00290008  RH  086%=      5-min Rain = 0
KTAS 180921Z 24007KT 03/01 A3002 RMK A01 T00300008  RH  086%=      5-min Rain = 0
KTAS 180922Z 24007KT 03/01 A3002 RMK A01 T00310008  RH  085%=      5-min Rain = 0
KTAS 180923Z 24008KT 03/01 A3002 RMK A01 T00310008  RH  085%=      5-min Rain = 0
KTAS 180924Z 24008KT 03/01 A3002 RMK A01 T00310008  RH  085%=      5-min Rain = 0
KTAS 180925Z 24008KT 03/01 A3001 RMK A01 T00320009  RH  085%=      5-min Rain = 0
KTAS 180926Z 24008KT 03/01 A3001 RMK A01 T00320009  RH  085%=      5-min Rain = 0
KTAS 180927Z 24008KT 03/01 A3001 RMK A01 T00330010  RH  085%=      5-min Rain = 0
KTAS 180928Z 23008KT 03/01 A3001 RMK A01 T00340010  RH  084%=      5-min Rain = 0
KTAS 180929Z 23007KT 03/01 A3001 RMK A01 T00340010  RH  084%=      5-min Rain = 0
KTAS 180930Z 23007KT 04/01 A3001 RMK A01 T00350011  RH  084%=      5-min Rain = 0
KTAS 180931Z 23007KT 04/01 A3001 RMK A01 T00350011  RH  084%=      5-min Rain = 0
KTAS 180932Z 23007KT 04/01 A3001 RMK A01 T00360011  RH  084%=      5-min Rain = 0
KTAS 180933Z 23007KT 04/01 A3001 RMK A01 T00370011  RH  083%=      5-min Rain = 0
KTAS 180934Z 23007KT 04/01 A3001 RMK A01 T00370011  RH  083%=      5-min Rain = 0
KTAS 180935Z 23007KT 04/01 A3001 RMK A01 T00380011  RH  083%=      5-min Rain = 0
KTAS 180936Z 23007KT 04/01 A3001 RMK A01 T00380011  RH  082%=      5-min Rain = 0
KTAS 180937Z 23006KT 04/01 A3001 RMK A01 T00380010  RH  082%=      5-min Rain = 0
KTAS 180938Z 23007KT 04/01 A3001 RMK A01 T00370010  RH  082%=      5-min Rain = 0
KTAS 180939Z 23007KT 04/01 A3001 RMK A01 T00370010  RH  082%=      5-min Rain = 0
KTAS 180940Z 23007KT 04/01 A3001 RMK A01 T00360009  RH  082%=      5-min Rain = 0
KTAS 180941Z 24007KT 04/01 A3001 RMK A01 T00360009  RH  083%=      5-min Rain = 0
KTAS 180942Z 24007KT 04/01 A3001 RMK A01 T00360009  RH  082%=      5-min Rain = 0
KTAS 180943Z 24007KT 04/01 A3001 RMK A01 T00360009  RH  083%=      5-min Rain = 0
KTAS 180944Z 24007KT 04/01 A3001 RMK A01 T00360009  RH  083%=      5-min Rain = 0
KTAS 180945Z 24007KT 04/01 A3001 RMK A01 T00360009  RH  083%=      5-min Rain = 0
KTAS 180946Z 24007KT 04/01 A3001 RMK A01 T00360009  RH  083%=      5-min Rain = 0
KTAS 180947Z 24007KT 04/01 A3001 RMK A01 T00350008  RH  083%=      5-min Rain = 0
KTAS 180948Z 24007KT 04/01 A3001 RMK A01 T00350008  RH  083%=      5-min Rain = 0
KTAS 180949Z 24007KT 04/01 A3001 RMK A01 T00360008  RH  082%=      5-min Rain = 0
KTAS 180950Z 24006KT 04/01 A3001 RMK A01 T00360008  RH  082%=      5-min Rain = 0
KTAS 180951Z 24006KT 04/01 A3001 RMK A01 T00360008  RH  082%=      5-min Rain = 0
KTAS 180952Z 24006KT 04/01 A3001 RMK A01 T00360008  RH  082%=      5-min Rain = 0
KTAS 180953Z 24006KT 04/01 A3001 RMK A01 T00360008  RH  082%=      5-min Rain = 0
KTAS 180954Z 24007KT 04/01 A3001 RMK A01 T00370008  RH  082%=      5-min Rain = 0
KTAS 180955Z 24006KT 04/01 A3001 RMK A01 T00370008  RH  081%=      5-min Rain = 0
KTAS 180956Z 24007KT 04/01 A30 RMK A01 T00380008  RH  081%=      5-min Rain = 0
KTAS 180957Z 24007KT 04/01 A30 RMK A01 T00380008  RH  081%=      5-min Rain = 0
KTAS 180958Z 23007KT 04/01 A30 RMK A01 T00380008  RH  081%=      5-min Rain = 0
KTAS 180959Z 23008KT 04/01 A3001 RMK A01 T00370007  RH  081%=      5-min Rain = 0
KTAS 181000Z 23008KT 04/01 A3001 RMK A01 T00350006  RH  081%=      5-min Rain = 0
KTAS 181001Z 23008KT 04/01 A3001 RMK A01 T00350007  RH  082%=      5-min Rain = 0
KTAS 181002Z 23008KT 04/01 A3001 RMK A01 T00360008  RH  082%=      5-min Rain = 0
KTAS 181003Z 23008KT 04/01 A3001 RMK A01 T00370009  RH  082%=      5-min Rain = 0
KTAS 181004Z 23008KT 04/01 A3001 RMK A01 T00380010  RH  082%=      5-min Rain = 0
KTAS 181005Z 23008KT 04/01 A3001 RMK A01 T00380009  RH  081%=      5-min Rain = 0
KTAS 181006Z 23007KT 04/01 A3001 RMK A01 T00390009  RH  081%=      5-min Rain = 0
KTAS 181007Z 23008KT 04/01 A3001 RMK A01 T00380008  RH  081%=      5-min Rain = 0
KTAS 181008Z 23008KT 04/01 A3001 RMK A01 T00360008  RH  081%=      5-min Rain = 0
KTAS 181009Z 23008KT 04/01 A3001 RMK A01 T00360007  RH  082%=      5-min Rain = 0
KTAS 181010Z 23008KT 04/01 A3001 RMK A01 T00350007  RH  082%=      5-min Rain = 0
KTAS 181011Z 23008KT 04/01 A3001 RMK A01 T00350007  RH  082%=      5-min Rain = 0
KTAS 181012Z 24007KT 03/01 A3001 RMK A01 T00340007  RH  083%=      5-min Rain = 0
KTAS 181013Z 24007KT 03/01 A3001 RMK A01 T00340007  RH  083%=      5-min Rain = 0
KTAS 181014Z 24007KT 03/01 A3001 RMK A01 T00330007  RH  083%=      5-min Rain = 0
KTAS 181015Z 24007KT 03/01 A3001 RMK A01 T00330007  RH  083%=      5-min Rain = 0
KTAS 181016Z 24007KT 03/01 A30 RMK A01 T00330007  RH  083%=      5-min Rain = 0
KTAS 181017Z 24007KT 03/01 A3001 RMK A01 T00340007  RH  083%=      5-min Rain = 0
KTAS 181018Z 24007KT 03/01 A3001 RMK A01 T00340008  RH  083%=      5-min Rain = 0
KTAS 181019Z 24007KT 04/01 A30 RMK A01 T00350008  RH  083%=      5-min Rain = 0
KTAS 181020Z 24007KT 04/01 A30 RMK A01 T00350008  RH  083%=      5-min Rain = 0
KTAS 181021Z 24007KT 04/01 A30 RMK A01 T00360009  RH  083%=      5-min Rain = 0
KTAS 181022Z 23007KT 04/01 A30 RMK A01 T00360009  RH  082%=      5-min Rain = 0
KTAS 181023Z 24007KT 04/01 A30 RMK A01 T00360008  RH  082%=      5-min Rain = 0
KTAS 181024Z 24007KT 04/01 A30 RMK A01 T00360009  RH  082%=      5-min Rain = 0
KTAS 181025Z 23006KT 04/01 A30 RMK A01 T00360009  RH  083%=      5-min Rain = 0
KTAS 181026Z 24006KT 04/01 A30 RMK A01 T00360009  RH  083%=      5-min Rain = 0
KTAS 181027Z 23006KT 04/01 A30 RMK A01 T00360009  RH  083%=      5-min Rain = 0
KTAS 181028Z 24006KT 04/01 A30 RMK A01 T00350009  RH  083%=      5-min Rain = 0
KTAS 181029Z 24006KT 04/01 A30 RMK A01 T00350008  RH  083%=      5-min Rain = 0
KTAS 181030Z 24006KT 04/01 A30 RMK A01 T00350008  RH  083%=      5-min Rain = 0
KTAS 181031Z 24006KT 03/01 A30 RMK A01 T00340008  RH  083%=      5-min Rain = 0
KTAS 181032Z 24006KT 03/01 A30 RMK A01 T00340008  RH  083%=      5-min Rain = 0
KTAS 181033Z 24006KT 03/01 A30 RMK A01 T00340008  RH  083%=      5-min Rain = 0
KTAS 181034Z 24006KT 03/01 A30 RMK A01 T00340008  RH  083%=      5-min Rain = 0
KTAS 181035Z 24006KT 03/01 A30 RMK A01 T00340008  RH  083%=      5-min Rain = 0
KTAS 181036Z 24006KT 03/01 A30 RMK A01 T00340008  RH  083%=      5-min Rain = 0
KTAS 181037Z 24006KT 03/01 A30 RMK A01 T00340008  RH  083%=      5-min Rain = 0
KTAS 181038Z 24006KT 03/01 A30 RMK A01 T00340007  RH  083%=      5-min Rain = 0
KTAS 181039Z 24007KT 03/01 A30 RMK A01 T00340007  RH  083%=      5-min Rain = 0
KTAS 181040Z 24006KT 03/01 A30 RMK A01 T00340008  RH  083%=      5-min Rain = 0
KTAS 181041Z 23006KT 03/01 A30 RMK A01 T00340007  RH  083%=      5-min Rain = 0
KTAS 181042Z 23006KT 03/01 A30 RMK A01 T00330007  RH  083%=      5-min Rain = 0
KTAS 181043Z 23006KT 03/01 A30 RMK A01 T00330006  RH  083%=      5-min Rain = 0
KTAS 181044Z 23006KT 03/01 A30 RMK A01 T00320006  RH  083%=      5-min Rain = 0
KTAS 181045Z 23006KT 03/01 A30 RMK A01 T00320006  RH  083%=      5-min Rain = 0
KTAS 181046Z 23006KT 03/01 A2999 RMK A01 T00310006  RH  083%=      5-min Rain = 0
KTAS 181047Z 23006KT 03/01 A2999 RMK A01 T00310005  RH  083%=      5-min Rain = 0
KTAS 181048Z 23006KT 03/01 A2999 RMK A01 T00300005  RH  084%=      5-min Rain = 0
KTAS 181049Z 23007KT 03/00 A2999 RMK A01 T00290004  RH  084%=      5-min Rain = 0
KTAS 181050Z 23007KT 03/00 A2999 RMK A01 T00280004  RH  084%=      5-min Rain = 0
KTAS 181051Z 23007KT 03/01 A2999 RMK A01 T00280005  RH  084%=      5-min Rain = 0
KTAS 181052Z 23007KT 03/01 A2999 RMK A01 T00280005  RH  084%=      5-min Rain = 0
KTAS 181053Z 23007KT 03/01 A2999 RMK A01 T00280005  RH  084%=      5-min Rain = 0
KTAS 181054Z 23007KT 03/01 A2999 RMK A01 T00280005  RH  084%=      5-min Rain = 0
KTAS 181055Z 23007KT 03/00 A2999 RMK A01 T00280004  RH  085%=      5-min Rain = 0
KTAS 181056Z 23007KT 03/01 A2999 RMK A01 T00280005  RH  085%=      5-min Rain = 0
KTAS 181057Z 23007KT 03/01 A2999 RMK A01 T00280005  RH  085%=      5-min Rain = 0
KTAS 181058Z 24007KT 03/01 A2999 RMK A01 T00290005  RH  085%=      5-min Rain = 0
KTAS 181059Z 24007KT 03/01 A2999 RMK A01 T00290006  RH  085%=      5-min Rain = 0
KTAS 181100Z 24007KT 03/01 A2999 RMK A01 T00290005  RH  084%=      5-min Rain = 0
KTAS 181101Z 24007KT 03/01 A2999 RMK A01 T00300006  RH  084%=      5-min Rain = 0
KTAS 181102Z 24007KT 03/01 A2999 RMK A01 T00300005  RH  084%=      5-min Rain = 0
KTAS 181103Z 24007KT 03/01 A2999 RMK A01 T00300005  RH  084%=      5-min Rain = 0
KTAS 181104Z 24007KT 03/01 A2999 RMK A01 T00300005  RH  084%=      5-min Rain = 0
KTAS 181105Z 24008KT 03/01 A2999 RMK A01 T00290005  RH  084%=      5-min Rain = 0
KTAS 181106Z 24008KT 03/01 A2999 RMK A01 T00300005  RH  084%=      5-min Rain = 0
KTAS 181107Z 24008KT 03/01 A2999 RMK A01 T00300005  RH  084%=      5-min Rain = 0
KTAS 181108Z 24008KT 03/01 A2999 RMK A01 T00300006  RH  084%=      5-min Rain = 0
KTAS 181109Z 24008KT 03/01 A2999 RMK A01 T00300006  RH  084%=      5-min Rain = 0
KTAS 181110Z 24008KT 03/01 A2998 RMK A01 T00300006  RH  084%=      5-min Rain = 0
KTAS 181111Z 24008KT 03/01 A2998 RMK A01 T00310007  RH  084%=      5-min Rain = 0
KTAS 181112Z 24008KT 03/01 A2998 RMK A01 T00310007  RH  084%=      5-min Rain = 0
KTAS 181113Z 24008KT 03/01 A2998 RMK A01 T00320008  RH  084%=      5-min Rain = 0
KTAS 181114Z 23008KT 03/01 A2998 RMK A01 T00330008  RH  084%=      5-min Rain = 0
KTAS 181115Z 23008KT 03/01 A2998 RMK A01 T00330008  RH  084%=      5-min Rain = 0
KTAS 181116Z 23008KT 03/01 A2998 RMK A01 T00340008  RH  083%=      5-min Rain = 0
KTAS 181117Z 23008KT 03/01 A2998 RMK A01 T00340008  RH  083%=      5-min Rain = 0
KTAS 181118Z 23007KT 03/01 A2998 RMK A01 T00340009  RH  083%=      5-min Rain = 0
KTAS 181119Z 23008KT 03/01 A2998 RMK A01 T00340008  RH  083%=      5-min Rain = 0
KTAS 181120Z 22008KT 03/01 A2998 RMK A01 T00340008  RH  083%=      5-min Rain = 0
KTAS 181121Z 22008KT 03/01 A2998 RMK A01 T00340007  RH  083%=      5-min Rain = 0
KTAS 181122Z 22008KT 03/01 A2998 RMK A01 T00330007  RH  083%=      5-min Rain = 0
KTAS 181123Z 22008KT 03/01 A2998 RMK A01 T00320007  RH  083%=      5-min Rain = 0
KTAS 181124Z 22007KT 03/01 A2998 RMK A01 T00320007  RH  084%=      5-min Rain = 0
KTAS 181125Z 23007KT 03/01 A2998 RMK A01 T00320007  RH  084%=      5-min Rain = 0
KTAS 181126Z 23007KT 03/01 A2998 RMK A01 T00320007  RH  084%=      5-min Rain = 0
KTAS 181127Z 23007KT 03/01 A2998 RMK A01 T00320007  RH  084%=      5-min Rain = 0
KTAS 181128Z 23007KT 03/01 A2998 RMK A01 T00320007  RH  084%=      5-min Rain = 0
KTAS 181129Z 23007KT 03/01 A2998 RMK A01 T00320007  RH  084%=      5-min Rain = 0
KTAS 181130Z 23007KT 03/01 A2998 RMK A01 T00310006  RH  084%=      5-min Rain = 0
KTAS 181131Z 23007KT 03/01 A2998 RMK A01 T00310006  RH  084%=      5-min Rain = 0
KTAS 181132Z 23007KT 03/01 A2998 RMK A01 T00310007  RH  084%=      5-min Rain = 0
KTAS 181133Z 23008KT 03/01 A2998 RMK A01 T00320007  RH  084%=      5-min Rain = 0
KTAS 181134Z 23008KT 03/01 A2998 RMK A01 T00320007  RH  084%=      5-min Rain = 0
KTAS 181135Z 23008KT 03/01 A2998 RMK A01 T00320007  RH  084%=      5-min Rain = 0
KTAS 181136Z 23008KT 03/01 A2998 RMK A01 T00320007  RH  084%=      5-min Rain = 0
KTAS 181137Z 23008KT 03/01 A2998 RMK A01 T00320007  RH  084%=      5-min Rain = 0
KTAS 181138Z 23008KT 03/01 A2998 RMK A01 T00320007  RH  084%=      5-min Rain = 0
KTAS 181139Z 23008KT 03/01 A2998 RMK A01 T00320007  RH  084%=      5-min Rain = 0
KTAS 181140Z 23007KT 03/01 A2998 RMK A01 T00320007  RH  083%=      5-min Rain = 0
KTAS 181141Z 23007KT 03/01 A2998 RMK A01 T00330007  RH  083%=      5-min Rain = 0
KTAS 181142Z 23007KT 03/01 A2998 RMK A01 T00330008  RH  083%=      5-min Rain = 0
KTAS 181143Z 23007KT 03/01 A2998 RMK A01 T00330007  RH  083%=      5-min Rain = 0
KTAS 181144Z 23008KT 03/01 A2998 RMK A01 T00330007  RH  083%=      5-min Rain = 0
KTAS 181145Z 23007KT 03/01 A2998 RMK A01 T00320007  RH  083%=      5-min Rain = 0
KTAS 181146Z 23007KT 03/01 A2998 RMK A01 T00320006  RH  083%=      5-min Rain = 0
KTAS 181147Z 24007KT 03/01 A2999 RMK A01 T00320007  RH  084%=      5-min Rain = 0
KTAS 181148Z 24007KT 03/01 A2999 RMK A01 T00320007  RH  084%=      5-min Rain = 0
KTAS 181149Z 24007KT 03/01 A2999 RMK A01 T00320007  RH  083%=      5-min Rain = 0
KTAS 181150Z 24007KT 03/01 A2999 RMK A01 T00320007  RH  083%=      5-min Rain = 0
KTAS 181151Z 24007KT 03/01 A2999 RMK A01 T00320007  RH  083%=      5-min Rain = 0
KTAS 181152Z 23007KT 03/01 A2999 RMK A01 T00320007  RH  083%=      5-min Rain = 0
KTAS 181153Z 24008KT 03/01 A2999 RMK A01 T00320007  RH  083%=      5-min Rain = 0
KTAS 181154Z 23008KT 03/01 A2999 RMK A01 T00320007  RH  084%=      5-min Rain = 0
KTAS 181155Z 23007KT 03/01 A2999 RMK A01 T00320007  RH  083%=      5-min Rain = 0
KTAS 181156Z 23007KT 03/01 A2999 RMK A01 T00320007  RH  083%=      5-min Rain = 0
KTAS 181157Z 24007KT 03/01 A2999 RMK A01 T00320006  RH  083%=      5-min Rain = 0
KTAS 181158Z 24007KT 03/01 A2999 RMK A01 T00310006  RH  084%=      5-min Rain = 0
KTAS 181159Z 24007KT 03/01 A2999 RMK A01 T00310006  RH  084%=      5-min Rain = 0
KTAS 181200Z 23006KT 03/01 A2999 RMK A01 T00300006  RH  084%=      5-min Rain = 0
KTAS 181201Z 23007KT 03/01 A2999 RMK A01 T00300006  RH  084%=      5-min Rain = 0
KTAS 181202Z 23007KT 03/01 A2999 RMK A01 T00300006  RH  084%=      5-min Rain = 0
KTAS 181203Z 23007KT 03/01 A2999 RMK A01 T00300006  RH  084%=      5-min Rain = 0
KTAS 181204Z 23007KT 03/01 A2999 RMK A01 T00300006  RH  084%=      5-min Rain = 0
KTAS 181205Z 23007KT 03/01 A2999 RMK A01 T00300005  RH  084%=      5-min Rain = 0
KTAS 181206Z 23008KT 03/01 A2999 RMK A01 T00300005  RH  084%=      5-min Rain = 0
KTAS 181207Z 22008KT 03/01 A2999 RMK A01 T00300006  RH  084%=      5-min Rain = 0
KTAS 181208Z 22008KT 03/01 A2999 RMK A01 T00300005  RH  084%=      5-min Rain = 0
KTAS 181209Z 22008KT 03/01 A2999 RMK A01 T00300006  RH  084%=      5-min Rain = 0
KTAS 181210Z 22008KT 03/01 A2999 RMK A01 T00310006  RH  084%=      5-min Rain = 0
KTAS 181211Z 22008KT 03/01 A2999 RMK A01 T00310007  RH  084%=      5-min Rain = 0
KTAS 181212Z 22008KT 03/01 A2999 RMK A01 T00320007  RH  084%=      5-min Rain = 0
KTAS 181213Z 22008KT 03/01 A2999 RMK A01 T00320007  RH  084%=      5-min Rain = 0
KTAS 181214Z 22008KT 03/01 A2999 RMK A01 T00320007  RH  084%=      5-min Rain = 0
KTAS 181215Z 22007KT 03/01 A2999 RMK A01 T00320007  RH  084%=      5-min Rain = 0
KTAS 181216Z 22008KT 03/01 A2999 RMK A01 T00310006  RH  084%=      5-min Rain = 0
KTAS 181217Z 23008KT 03/01 A2999 RMK A01 T00310006  RH  084%=      5-min Rain = 0
KTAS 181218Z 23008KT 03/01 A2999 RMK A01 T00320007  RH  084%=      5-min Rain = 0
KTAS 181219Z 22008KT 03/01 A2999 RMK A01 T00330008  RH  084%=      5-min Rain = 0
KTAS 181220Z 22008KT 03/01 A2998 RMK A01 T00340008  RH  083%=      5-min Rain = 0
KTAS 181221Z 23008KT 03/01 A2998 RMK A01 T00340008  RH  083%=      5-min Rain = 0
KTAS 181222Z 23008KT 04/01 A2998 RMK A01 T00350009  RH  083%=      5-min Rain = 0
KTAS 181223Z 22008KT 04/01 A2998 RMK A01 T00350009  RH  083%=      5-min Rain = 0
KTAS 181224Z 22008KT 04/01 A2998 RMK A01 T00360009  RH  083%=      5-min Rain = 0
KTAS 181225Z 22008KT 04/01 A2998 RMK A01 T00360009  RH  083%=      5-min Rain = 0
KTAS 181226Z 22008KT 04/01 A2998 RMK A01 T00360009  RH  083%=      5-min Rain = 0
KTAS 181227Z 22008KT 04/01 A2998 RMK A01 T00360009  RH  082%=      5-min Rain = 0
KTAS 181228Z 22008KT 04/01 A2998 RMK A01 T00370009  RH  082%=      5-min Rain = 0
KTAS 181229Z 22008KT 04/01 A2998 RMK A01 T00370009  RH  082%=      5-min Rain = 0
KTAS 181230Z 23008KT 04/01 A2998 RMK A01 T00360009  RH  082%=      5-min Rain = 0
KTAS 181231Z 23008KT 04/01 A2998 RMK A01 T00370009  RH  082%=      5-min Rain = 0
KTAS 181232Z 23008KT 04/01 A2998 RMK A01 T00370009  RH  082%=      5-min Rain = 0
KTAS 181233Z 23008KT 04/01 A2998 RMK A01 T00370009  RH  082%=      5-min Rain = 0
KTAS 181234Z 22008KT 04/01 A2998 RMK A01 T00360008  RH  082%=      5-min Rain = 0
KTAS 181235Z 22008KT 04/01 A2998 RMK A01 T00350008  RH  082%=      5-min Rain = 0
KTAS 181236Z 22008KT 04/01 A2998 RMK A01 T00350008  RH  083%=      5-min Rain = 0
KTAS 181237Z 22008KT 03/01 A2998 RMK A01 T00340008  RH  083%=      5-min Rain = 0
KTAS 181238Z 22008KT 03/01 A2998 RMK A01 T00340008  RH  083%=      5-min Rain = 0
KTAS 181239Z 22009KT 03/01 A2998 RMK A01 T00340008  RH  083%=      5-min Rain = 0
KTAS 181240Z 22009KT 03/01 A2997 RMK A01 T00340008  RH  083%=      5-min Rain = 0
KTAS 181241Z 22008KT 03/01 A2997 RMK A01 T00340008  RH  083%=      5-min Rain = 0
KTAS 181242Z 22008KT 03/01 A2997 RMK A01 T00340008  RH  083%=      5-min Rain = 0
KTAS 181243Z 22008KT 03/01 A2997 RMK A01 T00340008  RH  083%=      5-min Rain = 0
KTAS 181244Z 22008KT 03/01 A2997 RMK A01 T00340008  RH  083%=      5-min Rain = 0
KTAS 181245Z 22008KT 03/01 A2997 RMK A01 T00340008  RH  083%=      5-min Rain = 0
KTAS 181246Z 22007KT 03/01 A2998 RMK A01 T00340008  RH  083%=      5-min Rain = 0
KTAS 181247Z 22008KT 03/01 A2998 RMK A01 T00330008  RH  083%=      5-min Rain = 0
KTAS 181248Z 22007KT 03/01 A2997 RMK A01 T00340008  RH  083%=      5-min Rain = 0
KTAS 181249Z 22007KT 03/01 A2997 RMK A01 T00340008  RH  083%=      5-min Rain = 0
KTAS 181250Z 22008KT 03/01 A2997 RMK A01 T00340008  RH  083%=      5-min Rain = 0
KTAS 181251Z 22008KT 03/01 A2997 RMK A01 T00330007  RH  083%=      5-min Rain = 0
KTAS 181252Z 22008KT 03/01 A2997 RMK A01 T00330008  RH  083%=      5-min Rain = 0
KTAS 181253Z 22008KT 03/01 A2997 RMK A01 T00330008  RH  083%=      5-min Rain = 0
KTAS 181254Z 21008KT 03/01 A2997 RMK A01 T00330008  RH  083%=      5-min Rain = 0
KTAS 181255Z 22008KT 03/01 A2997 RMK A01 T00330007  RH  083%=      5-min Rain = 0
KTAS 181256Z 22008KT 03/01 A2997 RMK A01 T00330008  RH  083%=      5-min Rain = 0
KTAS 181257Z 22008KT 03/01 A2997 RMK A01 T00340008  RH  083%=      5-min Rain = 0
KTAS 181258Z 22008KT 03/01 A2997 RMK A01 T00330007  RH  083%=      5-min Rain = 0
KTAS 181259Z 22008KT 03/01 A2997 RMK A01 T00330007  RH  083%=      5-min Rain = 0
KTAS 181300Z 22009KT 03/01 A2997 RMK A01 T00330007  RH  083%=      5-min Rain = 0
KTAS 181301Z 22008KT 03/01 A2997 RMK A01 T00330006  RH  083%=      5-min Rain = 0
KTAS 181302Z 22007KT 03/01 A2997 RMK A01 T00320006  RH  083%=      5-min Rain = 0
KTAS 181303Z 22007KT 03/01 A2998 RMK A01 T00320006  RH  083%=      5-min Rain = 0
KTAS 181304Z 22008KT 03/01 A2998 RMK A01 T00320006  RH  083%=      5-min Rain = 0
KTAS 181305Z 22008KT 03/01 A2998 RMK A01 T00310006  RH  084%=      5-min Rain = 0
KTAS 181306Z 22007KT 03/01 A2998 RMK A01 T00310006  RH  084%=      5-min Rain = 0
KTAS 181307Z 22007KT 03/01 A2998 RMK A01 T00310006  RH  084%=      5-min Rain = 0
KTAS 181308Z 22007KT 03/01 A2998 RMK A01 T00300006  RH  084%=      5-min Rain = 0
KTAS 181309Z 22007KT 03/01 A2998 RMK A01 T00300006  RH  084%=      5-min Rain = 0
KTAS 181310Z 22007KT 03/01 A2998 RMK A01 T00300005  RH  084%=      5-min Rain = 0
KTAS 181311Z 22008KT 03/01 A2998 RMK A01 T00290005  RH  084%=      5-min Rain = 0
KTAS 181312Z 22007KT 03/01 A2998 RMK A01 T00290005  RH  084%=      5-min Rain = 0
KTAS 181313Z 22007KT 03/01 A2997 RMK A01 T00290005  RH  084%=      5-min Rain = 0
KTAS 181314Z 22007KT 03/00 A2997 RMK A01 T00280004  RH  084%=      5-min Rain = 0
KTAS 181315Z 22007KT 03/00 A2997 RMK A01 T00280004  RH  084%=      5-min Rain = 0
KTAS 181316Z 22007KT 03/00 A2998 RMK A01 T00280004  RH  084%=      5-min Rain = 0
KTAS 181317Z 22007KT 03/00 A2998 RMK A01 T00280004  RH  085%=      5-min Rain = 0
KTAS 181318Z 22007KT 03/00 A2998 RMK A01 T00270004  RH  085%=      5-min Rain = 0
KTAS 181319Z 22007KT 03/00 A2998 RMK A01 T00270004  RH  085%=      5-min Rain = 0
KTAS 181320Z 23007KT 03/00 A2998 RMK A01 T00270004  RH  085%=      5-min Rain = 0
KTAS 181321Z 23006KT 03/00 A2998 RMK A01 T00260004  RH  085%=      5-min Rain = 0
KTAS 181322Z 23007KT 03/00 A2998 RMK A01 T00260004  RH  085%=      5-min Rain = 0
KTAS 181323Z 23007KT 03/00 A2998 RMK A01 T00260003  RH  085%=      5-min Rain = 0
KTAS 181324Z 23006KT 03/00 A2998 RMK A01 T00260003  RH  085%=      5-min Rain = 0
KTAS 181325Z 23007KT 03/00 A2998 RMK A01 T00260004  RH  085%=      5-min Rain = 0
KTAS 181326Z 23006KT 03/00 A2998 RMK A01 T00250003  RH  085%=      5-min Rain = 0
KTAS 181327Z 23006KT 03/00 A2998 RMK A01 T00250003  RH  085%=      5-min Rain = 0
KTAS 181328Z 23006KT 03/00 A2998 RMK A01 T00260003  RH  085%=      5-min Rain = 0
KTAS 181329Z 23007KT 03/00 A2998 RMK A01 T00260004  RH  085%=      5-min Rain = 0
KTAS 181330Z 23007KT 03/00 A2998 RMK A01 T00260004  RH  085%=      5-min Rain = 0
KTAS 181331Z 22007KT 03/00 A2998 RMK A01 T00260003  RH  085%=      5-min Rain = 0
KTAS 181332Z 22007KT 03/00 A2998 RMK A01 T00260003  RH  085%=      5-min Rain = 0
KTAS 181333Z 22007KT 03/00 A2998 RMK A01 T00260003  RH  085%=      5-min Rain = 0
KTAS 181334Z 22007KT 03/00 A2998 RMK A01 T00260003  RH  085%=      5-min Rain = 0
KTAS 181335Z 22007KT 03/00 A2998 RMK A01 T00260003  RH  085%=      5-min Rain = 0
KTAS 181336Z 22007KT 03/00 A2998 RMK A01 T00260003  RH  085%=      5-min Rain = 0
KTAS 181337Z 22007KT 03/00 A2998 RMK A01 T00260004  RH  085%=      5-min Rain = 0
KTAS 181338Z 22007KT 03/00 A2998 RMK A01 T00260004  RH  085%=      5-min Rain = 0
KTAS 181339Z 22006KT 03/00 A2998 RMK A01 T00270004  RH  085%=      5-min Rain = 0
KTAS 181340Z 22006KT 03/00 A2998 RMK A01 T00270004  RH  085%=      5-min Rain = 0
KTAS 181341Z 22006KT 03/00 A2999 RMK A01 T00270004  RH  085%=      5-min Rain = 0
KTAS 181342Z 22006KT 03/00 A2999 RMK A01 T00270004  RH  085%=      5-min Rain = 0
KTAS 181343Z 23006KT 03/01 A2999 RMK A01 T00280005  RH  085%=      5-min Rain = 0
KTAS 181344Z 23006KT 03/01 A2999 RMK A01 T00280005  RH  085%=      5-min Rain = 0
KTAS 181345Z 23006KT 03/01 A2999 RMK A01 T00290006  RH  085%=      5-min Rain = 0
KTAS 181346Z 23006KT 03/01 A2999 RMK A01 T00300006  RH  084%=      5-min Rain = 0
KTAS 181347Z 23006KT 03/01 A2999 RMK A01 T00300006  RH  084%=      5-min Rain = 0
KTAS 181348Z 24006KT 03/01 A2999 RMK A01 T00310006  RH  084%=      5-min Rain = 0
KTAS 181349Z 23006KT 03/01 A2999 RMK A01 T00320007  RH  084%=      5-min Rain = 0
KTAS 181350Z 23006KT 03/01 A2999 RMK A01 T00320007  RH  083%=      5-min Rain = 0
KTAS 181351Z 23006KT 03/01 A2999 RMK A01 T00320007  RH  083%=      5-min Rain = 0
KTAS 181352Z 23006KT 03/01 A2999 RMK A01 T00330007  RH  083%=      5-min Rain = 0
KTAS 181353Z 24005KT 03/01 A2999 RMK A01 T00340008  RH  083%=      5-min Rain = 0
KTAS 181354Z 24005KT 03/01 A2999 RMK A01 T00340008  RH  083%=      5-min Rain = 0
KTAS 181355Z 24005KT 04/01 A2999 RMK A01 T00350009  RH  083%=      5-min Rain = 0
KTAS 181356Z 23005KT 04/01 A2999 RMK A01 T00350009  RH  083%=      5-min Rain = 0
KTAS 181357Z 23005KT 04/01 A2999 RMK A01 T00360009  RH  083%=      5-min Rain = 0
KTAS 181358Z 22005KT 04/01 A2999 RMK A01 T00360010  RH  083%=      5-min Rain = 0
KTAS 181359Z 22005KT 04/01 A2999 RMK A01 T00370010  RH  083%=      5-min Rain = 0
KTAS 181400Z 22004KT 04/01 A2999 RMK A01 T00380011  RH  083%=      5-min Rain = 0
KTAS 181401Z 22005KT 04/01 A2999 RMK A01 T00380011  RH  082%=      5-min Rain = 0
KTAS 181402Z 22005KT 04/01 A2999 RMK A01 T00390011  RH  082%=      5-min Rain = 0
KTAS 181403Z 22004KT 04/01 A2999 RMK A01 T00390012  RH  082%=      5-min Rain = 0
KTAS 181404Z 22004KT 04/01 A2999 RMK A01 T00400012  RH  082%=      5-min Rain = 0
KTAS 181405Z 22004KT 04/01 A2999 RMK A01 T00410012  RH  082%=      5-min Rain = 0
KTAS 181406Z 22004KT 04/01 A2999 RMK A01 T00420012  RH  081%=      5-min Rain = 0
KTAS 181407Z 22004KT 04/01 A2999 RMK A01 T00420013  RH  081%=      5-min Rain = 0
KTAS 181408Z 23004KT 04/01 A2999 RMK A01 T00430013  RH  081%=      5-min Rain = 0
KTAS 181409Z 24003KT 04/01 A2999 RMK A01 T00440013  RH  081%=      5-min Rain = 0
KTAS 181410Z 24003KT 04/01 A2999 RMK A01 T00440014  RH  080%=      5-min Rain = 0
KTAS 181411Z 24003KT 05/01 A2999 RMK A01 T00450013  RH  080%=      5-min Rain = 0
KTAS 181412Z 23003KT 05/01 A2999 RMK A01 T00450014  RH  080%=      5-min Rain = 0
KTAS 181413Z 23002KT 05/01 A2999 RMK A01 T00460014  RH  080%=      5-min Rain = 0
KTAS 181414Z 23002KT 05/02 A2999 RMK A01 T00460015  RH  080%=      5-min Rain = 0
KTAS 181415Z 22002KT 05/02 A2999 RMK A01 T00470015  RH  080%=      5-min Rain = 0
KTAS 181416Z 22002KT 05/02 A2999 RMK A01 T00480016  RH  080%=      5-min Rain = 0
KTAS 181417Z 22002KT 05/02 A2999 RMK A01 T00480015  RH  079%=      5-min Rain = 0
KTAS 181418Z 22002KT 05/02 A2999 RMK A01 T00490015  RH  079%=      5-min Rain = 0
KTAS 181419Z 22002KT 05/02 A2999 RMK A01 T00500017  RH  079%=      5-min Rain = 0
KTAS 181420Z 22003KT 05/02 A2999 RMK A01 T00510017  RH  079%=      5-min Rain = 0
KTAS 181421Z 21002KT 05/02 A2999 RMK A01 T00510017  RH  078%=      5-min Rain = 0
KTAS 181422Z 21003KT 05/02 A2999 RMK A01 T00520017  RH  078%=      5-min Rain = 0
KTAS 181423Z 20003KT 05/02 A2999 RMK A01 T00530017  RH  078%=      5-min Rain = 0
KTAS 181424Z 20003KT 05/02 A2999 RMK A01 T00540018  RH  077%=      5-min Rain = 0
KTAS 181425Z 21003KT 06/02 A2999 RMK A01 T00550018  RH  077%=      5-min Rain = 0
KTAS 181426Z 20003KT 06/02 A2999 RMK A01 T00560020  RH  077%=      5-min Rain = 0
KTAS 181427Z 21003KT 06/02 A2999 RMK A01 T00570020  RH  077%=      5-min Rain = 0
KTAS 181428Z 21002KT 06/02 A2999 RMK A01 T00590021  RH  077%=      5-min Rain = 0
KTAS 181429Z 22002KT 06/02 A2999 RMK A01 T00610023  RH  077%=      5-min Rain = 0
KTAS 181430Z 22002KT 06/02 A2999 RMK A01 T00620024  RH  076%=      5-min Rain = 0
KTAS 181431Z 23002KT 06/03 A2999 RMK A01 T00640025  RH  076%=      5-min Rain = 0
KTAS 181432Z 24004KT 07/03 A2999 RMK A01 T00660025  RH  075%=      5-min Rain = 0
KTAS 181433Z 23004KT 07/03 A2999 RMK A01 T00680025  RH  074%=      5-min Rain = 0
KTAS 181434Z 23004KT 07/02 A2999 RMK A01 T00710024  RH  072%=      5-min Rain = 0
KTAS 181435Z 23004KT 07/03 A2999 RMK A01 T00730026  RH  072%=      5-min Rain = 0
KTAS 181436Z 24004KT 08/03 A2999 RMK A01 T00750025  RH  071%=      5-min Rain = 0
KTAS 181437Z 24005KT 08/02 A30 RMK A01 T00760024  RH  070%=      5-min Rain = 0
KTAS 181438Z 24005KT 08/02 A30 RMK A01 T00770024  RH  069%=      5-min Rain = 0
KTAS 181439Z 25004KT 08/02 A30 RMK A01 T00770024  RH  069%=      5-min Rain = 0
KTAS 181440Z 25003KT 08/03 A30 RMK A01 T00790026  RH  069%=      5-min Rain = 0
KTAS 181441Z 25004KT 08/03 A30 RMK A01 T00810027  RH  069%=      5-min Rain = 0
KTAS 181442Z 26005KT 08/03 A30 RMK A01 T00820027  RH  068%=      5-min Rain = 0
KTAS 181443Z 25006KT 08/03 A30 RMK A01 T00830025  RH  067%=      5-min Rain = 0
KTAS 181444Z 25006KT 08/02 A30 RMK A01 T00830023  RH  066%=      5-min Rain = 0
KTAS 181445Z 25006KT 08/03 A30 RMK A01 T00830025  RH  067%=      5-min Rain = 0
KTAS 181446Z 25006KT 08/02 A30 RMK A01 T00840024  RH  066%=      5-min Rain = 0
KTAS 181447Z 25007KT 08/02 A30 RMK A01 T00840024  RH  066%=      5-min Rain = 0
KTAS 181448Z 25007KT 09/02 A30 RMK A01 T00850023  RH  065%=      5-min Rain = 0
KTAS 181449Z 26006KT 09/03 A30 RMK A01 T00860025  RH  066%=      5-min Rain = 0
KTAS 181450Z 25005KT 09/02 A30 RMK A01 T00860024  RH  065%=      5-min Rain = 0
KTAS 181451Z 25006KT 09/03 A30 RMK A01 T00880027  RH  066%=      5-min Rain = 0
KTAS 181452Z 25007KT 09/03 A30 RMK A01 T00890025  RH  064%=      5-min Rain = 0
KTAS 181453Z 25008KT 09/03 A30 RMK A01 T00890025  RH  064%=      5-min Rain = 0
KTAS 181454Z 24008KT 09/02 A30 RMK A01 T00900024  RH  063%=      5-min Rain = 0
KTAS 181455Z 24007KT 09/02 A30 RMK A01 T00900024  RH  063%=      5-min Rain = 0
KTAS 181456Z 24006KT 09/03 A30 RMK A01 T00910025  RH  063%=      5-min Rain = 0
KTAS 181457Z 24007KT 09/03 A30 RMK A01 T00920026  RH  063%=      5-min Rain = 0
KTAS 181458Z 24008KT 09/03 A30 RMK A01 T00930025  RH  062%=      5-min Rain = 0
KTAS 181459Z 24007KT 09/03 A30 RMK A01 T00940025  RH  062%=      5-min Rain = 0
KTAS 181500Z 25008KT 10/03 A30 RMK A01 T00950025  RH  062%=      5-min Rain = 0
KTAS 181501Z 24006KT 10/03 A30 RMK A01 T00960026  RH  062%=      5-min Rain = 0
KTAS 181502Z 24008KT 10/03 A30 RMK A01 T00970026  RH  061%=      5-min Rain = 0
KTAS 181503Z 24007KT 10/02 A30 RMK A01 T00980023  RH  060%=      5-min Rain = 0
KTAS 181504Z 24007KT 10/02 A30 RMK A01 T00980024  RH  060%=      5-min Rain = 0
KTAS 181505Z 24008KT 10/02 A30 RMK A01 T00980023  RH  059%=      5-min Rain = 0
KTAS 181506Z 24009KT 10/02 A30 RMK A01 T00980022  RH  059%=      5-min Rain = 0
KTAS 181507Z 24010KT 10/02 A30 RMK A01 T00990023  RH  059%=      5-min Rain = 0
KTAS 181508Z 25008KT 10/02 A30 RMK A01 T01000021  RH  058%=      5-min Rain = 0
KTAS 181509Z 25008KT 10/02 A30 RMK A01 T01000021  RH  058%=      5-min Rain = 0
KTAS 181510Z 25007KT 10/02 A30 RMK A01 T01010023  RH  058%=      5-min Rain = 0
KTAS 181511Z 24008KT 10/02 A30 RMK A01 T01030024  RH  058%=      5-min Rain = 0
KTAS 181512Z 24009KT 10/02 A30 RMK A01 T01040023  RH  057%=      5-min Rain = 0
KTAS 181513Z 24009KT 10/02 A30 RMK A01 T01040022  RH  057%=      5-min Rain = 0
KTAS 181514Z 24008KT 11/02 A30 RMK A01 T01050022  RH  056%=      5-min Rain = 0
KTAS 181515Z 24009KT 11/02 A30 RMK A01 T01060023  RH  056%=      5-min Rain = 0
KTAS 181516Z 24011KT 11/02 A2999 RMK A01 T01070022  RH  056%=      5-min Rain = 0
KTAS 181517Z 24010KT 11/02 A2999 RMK A01 T01070021  RH  055%=      5-min Rain = 0
KTAS 181518Z 24010KT 11/02 A2999 RMK A01 T01070022  RH  056%=      5-min Rain = 0
KTAS 181519Z 24008KT 11/02 A30 RMK A01 T01080024  RH  056%=      5-min Rain = 0
KTAS 181520Z 25008KT 11/03 A30 RMK A01 T01100025  RH  056%=      5-min Rain = 0
KTAS 181521Z 24006KT 11/03 A30 RMK A01 T01110025  RH  055%=      5-min Rain = 0
KTAS 181522Z 23007KT 11/03 A30 RMK A01 T01130027  RH  056%=      5-min Rain = 0
KTAS 181523Z 24007KT 11/03 A30 RMK A01 T01140026  RH  055%=      5-min Rain = 0
KTAS 181524Z 24008KT 12/03 A30 RMK A01 T01150026  RH  054%=      5-min Rain = 0
KTAS 181525Z 24008KT 12/03 A30 RMK A01 T01150026  RH  054%=      5-min Rain = 0
KTAS 181526Z 24008KT 12/03 A30 RMK A01 T01150025  RH  054%=      5-min Rain = 0
KTAS 181527Z 24007KT 12/03 A30 RMK A01 T01150025  RH  054%=      5-min Rain = 0
KTAS 181528Z 24006KT 12/03 A30 RMK A01 T01160027  RH  054%=      5-min Rain = 0
KTAS 181529Z 23007KT 12/03 A30 RMK A01 T01190029  RH  054%=      5-min Rain = 0
KTAS 181530Z 25008KT 12/03 A30 RMK A01 T01200026  RH  052%=      5-min Rain = 0
KTAS 181531Z 24009KT 12/03 A30 RMK A01 T01200025  RH  052%=      5-min Rain = 0
KTAS 181532Z 24007KT 12/03 A30 RMK A01 T01210025  RH  052%=      5-min Rain = 0
KTAS 181533Z 24008KT 12/03 A30 RMK A01 T01220026  RH  052%=      5-min Rain = 0
KTAS 181534Z 24009KT 12/03 A30 RMK A01 T01240025  RH  051%=      5-min Rain = 0
KTAS 181535Z 24008KT 12/03 A30 RMK A01 T01230025  RH  051%=      5-min Rain = 0
KTAS 181536Z 24010KT 12/02 A30 RMK A01 T01240024  RH  051%=      5-min Rain = 0
KTAS 181537Z 23009KT 12/02 A30 RMK A01 T01230024  RH  051%=      5-min Rain = 0
KTAS 181538Z 23009KT 12/03 A30 RMK A01 T01240025  RH  051%=      5-min Rain = 0
KTAS 181539Z 23008KT 13/03 A30 RMK A01 T01250026  RH  051%=      5-min Rain = 0
KTAS 181540Z 23009KT 13/03 A30 RMK A01 T01270027  RH  050%=      5-min Rain = 0
KTAS 181541Z 23010KT 13/03 A30 RMK A01 T01280027  RH  050%=      5-min Rain = 0
KTAS 181542Z 23010KT 13/03 A30 RMK A01 T01280026  RH  050%=      5-min Rain = 0
KTAS 181543Z 23009KT 13/03 A30 RMK A01 T01290027  RH  050%=      5-min Rain = 0
KTAS 181544Z 23011KT 13/03 A30 RMK A01 T01300028  RH  050%=      5-min Rain = 0
KTAS 181545Z 23011KT 13/03 A30 RMK A01 T01300025  RH  049%=      5-min Rain = 0
KTAS 181546Z 24011KT 13/02 A30 RMK A01 T01300023  RH  048%=      5-min Rain = 0
KTAS 181547Z 24010KT 13/02 A2999 RMK A01 T01290024  RH  049%=      5-min Rain = 0
KTAS 181548Z 24009KT 13/03 A2999 RMK A01 T01290025  RH  049%=      5-min Rain = 0
KTAS 181549Z 22009KT 13/03 A2999 RMK A01 T01300027  RH  050%=      5-min Rain = 0
KTAS 181550Z 22008KT 13/03 A2999 RMK A01 T01330029  RH  049%=      5-min Rain = 0
KTAS 181551Z 23008KT 14/03 A2999 RMK A01 T01350028  RH  048%=      5-min Rain = 0
KTAS 181552Z 23009KT 14/03 A2999 RMK A01 T01350026  RH  047%=      5-min Rain = 0
KTAS 181553Z 23009KT 14/03 A2999 RMK A01 T01360027  RH  048%=      5-min Rain = 0
KTAS 181554Z 22008KT 14/03 A2999 RMK A01 T01370027  RH  047%=      5-min Rain = 0
KTAS 181555Z 23008KT 14/03 A2999 RMK A01 T01380027  RH  047%=      5-min Rain = 0
KTAS 181556Z 24010KT 14/03 A2999 RMK A01 T01380025  RH  046%=      5-min Rain = 0
KTAS 181557Z 23008KT 14/03 A2999 RMK A01 T01390025  RH  046%=      5-min Rain = 0
KTAS 181558Z 23009KT 14/03 A2999 RMK A01 T01400028  RH  046%=      5-min Rain = 0
KTAS 181559Z 23011KT 14/03 A2999 RMK A01 T01410026  RH  046%=      5-min Rain = 0
KTAS 181600Z 23010KT 14/02 A2999 RMK A01 T01390022  RH  045%=      5-min Rain = 0
KTAS 181601Z 23011KT 14/02 A2999 RMK A01 T01380024  RH  046%=      5-min Rain = 0
KTAS 181602Z 23010KT 14/03 A2999 RMK A01 T01380025  RH  046%=      5-min Rain = 0
KTAS 181603Z 23011KT 14/02 A2999 RMK A01 T01380022  RH  046%=      5-min Rain = 0
KTAS 181604Z 22010KT 14/02 A2999 RMK A01 T01370023  RH  046%=      5-min Rain = 0
KTAS 181605Z 22010KT 14/03 A2999 RMK A01 T01390025  RH  046%=      5-min Rain = 0
KTAS 181606Z 22011KT 14/03 A2999 RMK A01 T01400025  RH  046%=      5-min Rain = 0
KTAS 181607Z 22007KT 14/03 A2999 RMK A01 T01420027  RH  046%=      5-min Rain = 0
KTAS 181608Z 23009KT 15/03 A2999 RMK A01 T01450027  RH  045%=      5-min Rain = 0
KTAS 181609Z 22010KT 14/02 A2999 RMK A01 T01430022  RH  044%=      5-min Rain = 0
KTAS 181610Z 23009KT 14/02 A2998 RMK A01 T01420023  RH  045%=      5-min Rain = 0
KTAS 181611Z 22010KT 14/02 A2998 RMK A01 T01420024  RH  045%=      5-min Rain = 0
KTAS 181612Z 22010KT 14/02 A2998 RMK A01 T01440024  RH  045%=      5-min Rain = 0
KTAS 181613Z 22009KT 15/03 A2998 RMK A01 T01450026  RH  045%=      5-min Rain = 0
KTAS 181614Z 23010KT 15/03 A2998 RMK A01 T01460025  RH  044%=      5-min Rain = 0
KTAS 181615Z 23011KT 15/02 A2998 RMK A01 T01470023  RH  043%=      5-min Rain = 0
KTAS 181616Z 24009KT 15/02 A2998 RMK A01 T01450024  RH  044%=      5-min Rain = 0
KTAS 181617Z 24010KT 15/03 A2998 RMK A01 T01460025  RH  044%=      5-min Rain = 0
KTAS 181618Z 23009KT 15/03 A2998 RMK A01 T01470026  RH  044%=      5-min Rain = 0
KTAS 181619Z 23008KT 15/03 A2998 RMK A01 T01490026  RH  043%=      5-min Rain = 0
KTAS 181620Z 23008KT 15/03 A2998 RMK A01 T01510027  RH  043%=      5-min Rain = 0
KTAS 181621Z 23011KT 15/03 A2998 RMK A01 T01510027  RH  043%=      5-min Rain = 0
KTAS 181622Z 24011KT 15/02 A2998 RMK A01 T01510024  RH  042%=      5-min Rain = 0
KTAS 181623Z 24012KT 15/02 A2998 RMK A01 T01500023  RH  042%=      5-min Rain = 0
KTAS 181624Z 23009KT 15/02 A2998 RMK A01 T01490023  RH  043%=      5-min Rain = 0
KTAS 181625Z 23010KT 15/03 A2998 RMK A01 T01520026  RH  043%=      5-min Rain = 0
KTAS 181626Z 22008KT 15/03 A2998 RMK A01 T01530026  RH  042%=      5-min Rain = 0
KTAS 181627Z 24009KT 15/03 A2998 RMK A01 T01540026  RH  042%=      5-min Rain = 0
KTAS 181628Z 23009KT 16/03 A2998 RMK A01 T01550027  RH  042%=      5-min Rain = 0
KTAS 181629Z 23007KT 16/03 A2998 RMK A01 T01550026  RH  042%=      5-min Rain = 0
KTAS 181630Z 23009KT 16/03 A2998 RMK A01 T01560028  RH  042%=      5-min Rain = 0
KTAS 181631Z 24009KT 16/03 A2998 RMK A01 T01570027  RH  042%=      5-min Rain = 0
KTAS 181632Z 24008KT 16/03 A2998 RMK A01 T01570025  RH  041%=      5-min Rain = 0
KTAS 181633Z 23009KT 16/03 A2998 RMK A01 T01570026  RH  041%=      5-min Rain = 0
KTAS 181634Z 23008KT 16/03 A2998 RMK A01 T01560025  RH  041%=      5-min Rain = 0
KTAS 181635Z 24008KT 16/03 A2998 RMK A01 T01550026  RH  042%=      5-min Rain = 0
KTAS 181636Z 24007KT 16/03 A2998 RMK A01 T01570028  RH  042%=      5-min Rain = 0
KTAS 181637Z 23007KT 16/03 A2998 RMK A01 T01610030  RH  041%=      5-min Rain = 0
KTAS 181638Z 23010KT 16/03 A2998 RMK A01 T01640027  RH  040%=      5-min Rain = 0
KTAS 181639Z 23009KT 16/03 A2998 RMK A01 T01620025  RH  040%=      5-min Rain = 0
KTAS 181640Z 22009KT 16/03 A2998 RMK A01 T01610026  RH  040%=      5-min Rain = 0
KTAS 181641Z 23009KT 16/03 A2998 RMK A01 T01630027  RH  040%=      5-min Rain = 0
KTAS 181642Z 24009KT 17/03 A2998 RMK A01 T01650026  RH  039%=      5-min Rain = 0
KTAS 181643Z 23008KT 16/03 A2998 RMK A01 T01640026  RH  039%=      5-min Rain = 0
KTAS 181644Z 22008KT 16/03 A2998 RMK A01 T01640026  RH  040%=      5-min Rain = 0
KTAS 181645Z 22008KT 16/03 A2998 RMK A01 T01640028  RH  040%=      5-min Rain = 0
KTAS 181646Z 22007G12KT 17/03 A2998 RMK A01 T01660027  RH  039%=      5-min Rain = 0
KTAS 181647Z 22009KT 17/03 A2998 RMK A01 T01670027  RH  039%=      5-min Rain = 0
KTAS 181648Z 23009KT 17/03 A2998 RMK A01 T01660026  RH  039%=      5-min Rain = 0
KTAS 181649Z 22007KT 17/03 A2998 RMK A01 T01660027  RH  039%=      5-min Rain = 0
KTAS 181650Z 22009KT 17/03 A2998 RMK A01 T01690027  RH  039%=      5-min Rain = 0
KTAS 181651Z 22007KT 17/03 A2998 RMK A01 T01690025  RH  038%=      5-min Rain = 0
KTAS 181652Z 22009KT 17/03 A2998 RMK A01 T01690027  RH  039%=      5-min Rain = 0
KTAS 181653Z 23009KT 17/03 A2998 RMK A01 T01670027  RH  039%=      5-min Rain = 0
KTAS 181654Z 22008KT 17/03 A2998 RMK A01 T01670028  RH  039%=      5-min Rain = 0
KTAS 181655Z 22008G13KT 17/03 A2998 RMK A01 T01680029  RH  039%=      5-min Rain = 0
KTAS 181656Z 25010KT 17/03 A2998 RMK A01 T01730025  RH  037%=      5-min Rain = 0
KTAS 181657Z 24011KT 18/02 A2998 RMK A01 T01750023  RH  036%=      5-min Rain = 0
KTAS 181658Z 24009KT 18/02 A2998 RMK A01 T01750020  RH  035%=      5-min Rain = 0
KTAS 181659Z 24008KT 17/02 A2998 RMK A01 T01740022  RH  036%=      5-min Rain = 0
KTAS 181700Z 24007KT 17/02 A2998 RMK A01 T01730023  RH  036%=      5-min Rain = 0
KTAS 181701Z 24007KT 17/03 A2998 RMK A01 T01740025  RH  037%=      5-min Rain = 0
KTAS 181702Z 25005KT 17/03 A2998 RMK A01 T01740026  RH  037%=      5-min Rain = 0
KTAS 181703Z 26006KT 17/03 A2998 RMK A01 T01740025  RH  037%=      5-min Rain = 0
KTAS 181704Z 25008KT 18/03 A2998 RMK A01 T01760025  RH  036%=      5-min Rain = 0
KTAS 181705Z 26007KT 18/02 A2998 RMK A01 T01780021  RH  035%=      5-min Rain = 0
KTAS 181706Z 25009KT 18/02 A2998 RMK A01 T01790021  RH  035%=      5-min Rain = 0
KTAS 181707Z 25009KT 18/02 A2998 RMK A01 T01790019  RH  034%=      5-min Rain = 0
KTAS 181708Z 25006KT 18/02 A2998 RMK A01 T01790019  RH  034%=      5-min Rain = 0
KTAS 181709Z 25007KT 18/02 A2998 RMK A01 T01810020  RH  034%=      5-min Rain = 0
KTAS 181710Z 26005KT 18/02 A2998 RMK A01 T01830018  RH  033%=      5-min Rain = 0
KTAS 181711Z 26005KT 18/02 A2997 RMK A01 T01840020  RH  033%=      5-min Rain = 0
KTAS 181712Z 26006KT 19/02 A2997 RMK A01 T01850017  RH  033%=      5-min Rain = 0
KTAS 181713Z 26007KT 18/02 A2997 RMK A01 T01840018  RH  033%=      5-min Rain = 0
KTAS 181714Z 24006KT 19/02 A2997 RMK A01 T01850021  RH  033%=      5-min Rain = 0
KTAS 181715Z 25008KT 19/02 A2997 RMK A01 T01870019  RH  032%=      5-min Rain = 0
KTAS 181716Z 28010KT 19/01 A2997 RMK A01 T01900014  RH  031%=      5-min Rain = 0
KTAS 181717Z 29011KT 19/M01 A2998 RMK A01 T01921005  RH  026%=      5-min Rain = 0
KTAS 181718Z 29008KT 19/M01 A2998 RMK A01 T01921009  RH  026%=      5-min Rain = 0
KTAS 181719Z 29007KT 20/M01 A2998 RMK A01 T01951005  RH  026%=      5-min Rain = 0
KTAS 181720Z 29011KT 20/M00 A2998 RMK A01 T01991003  RH  026%=      5-min Rain = 0
KTAS 181721Z 29010KT 20/M01 A2998 RMK A01 T01991005  RH  025%=      5-min Rain = 0
KTAS 181722Z 30011KT 20/M00 A2998 RMK A01 T01971004  RH  026%=      5-min Rain = 0
KTAS 181723Z 30010KT 20/M00 A2997 RMK A01 T01971001  RH  026%=      5-min Rain = 0
KTAS 181724Z 29009KT 20/M00 A2997 RMK A01 T01991001  RH  026%=      5-min Rain = 0
KTAS 181725Z 29011KT 20/M00 A2997 RMK A01 T01981004  RH  026%=      5-min Rain = 0
KTAS 181726Z 28011KT 20/M00 A2997 RMK A01 T01961003  RH  026%=      5-min Rain = 0
KTAS 181727Z 29008KT 20/M00 A2997 RMK A01 T01951001  RH  027%=      5-min Rain = 0
KTAS 181728Z 29008KT 20/00 A2997 RMK A01 T01980003  RH  027%=      5-min Rain = 0
KTAS 181729Z 29009KT 20/00 A2997 RMK A01 T02000001  RH  026%=      5-min Rain = 0
KTAS 181730Z 30008KT 20/00 A2997 RMK A01 T01980001  RH  027%=      5-min Rain = 0
KTAS 181731Z 31008KT 20/00 A2997 RMK A01 T01980003  RH  027%=      5-min Rain = 0
KTAS 181732Z 30008KT 20/00 A2997 RMK A01 T02000004  RH  027%=      5-min Rain = 0
KTAS 181733Z 29008KT 20/00 A2997 RMK A01 T02020001  RH  026%=      5-min Rain = 0
KTAS 181734Z 29008KT 20/M00 A2997 RMK A01 T02001003  RH  026%=      5-min Rain = 0
KTAS 181735Z 30010KT 20/00 A2997 RMK A01 T02010001  RH  026%=      5-min Rain = 0
KTAS 181736Z 31009KT 20/M00 A2997 RMK A01 T02001002  RH  026%=      5-min Rain = 0
KTAS 181737Z 29010KT 20/M00 A2996 RMK A01 T01981004  RH  026%=      5-min Rain = 0
KTAS 181738Z 29010KT 20/M01 A2996 RMK A01 T01971006  RH  026%=      5-min Rain = 0
KTAS 181739Z 30008KT 20/M01 A2996 RMK A01 T01981005  RH  025%=      5-min Rain = 0
KTAS 181740Z 31007KT 20/M01 A2996 RMK A01 T01991007  RH  025%=      5-min Rain = 0
KTAS 181741Z 29007KT 20/M01 A2996 RMK A01 T02011006  RH  025%=      5-min Rain = 0
KTAS 181742Z 30010KT 20/M01 A2996 RMK A01 T02011009  RH  024%=      5-min Rain = 0
KTAS 181743Z 30011KT 20/M01 A2996 RMK A01 T02001010  RH  024%=      5-min Rain = 0
KTAS 181744Z 31010KT 20/M01 A2996 RMK A01 T01991011  RH  024%=      5-min Rain = 0
KTAS 181745Z 29009KT 20/M01 A2996 RMK A01 T01991010  RH  024%=      5-min Rain = 0
KTAS 181746Z 30009KT 20/M01 A2996 RMK A01 T02001009  RH  024%=      5-min Rain = 0
KTAS 181747Z 30010KT 20/M01 A2996 RMK A01 T02001011  RH  024%=      5-min Rain = 0
KTAS 181748Z 30009KT 20/M01 A2996 RMK A01 T01991013  RH  024%=      5-min Rain = 0
KTAS 181749Z 30009KT 20/M01 A2996 RMK A01 T02011012  RH  024%=      5-min Rain = 0
KTAS 181750Z 29011KT 20/M02 A2996 RMK A01 T02001016  RH  023%=      5-min Rain = 0
KTAS 181751Z 29010KT 20/M01 A2996 RMK A01 T02011012  RH  024%=      5-min Rain = 0
KTAS 181752Z 29010KT 20/M01 A2996 RMK A01 T02011012  RH  024%=      5-min Rain = 0
KTAS 181753Z 28007KT 20/M01 A2996 RMK A01 T01991011  RH  024%=      5-min Rain = 0
KTAS 181754Z 29007KT 20/M01 A2996 RMK A01 T01991009  RH  025%=      5-min Rain = 0
KTAS 181755Z 28009KT 20/M01 A2996 RMK A01 T02011009  RH  024%=      5-min Rain = 0
KTAS 181756Z 29007KT 20/M01 A2995 RMK A01 T01981011  RH  024%=      5-min Rain = 0
KTAS 181757Z 28006KT 20/M01 A2995 RMK A01 T01961011  RH  025%=      5-min Rain = 0
KTAS 181758Z 26005KT 20/M01 A2995 RMK A01 T01961009  RH  025%=      5-min Rain = 0
KTAS 181759Z 27005KT 20/M01 A2995 RMK A01 T01991007  RH  025%=      5-min Rain = 0
KTAS 181800Z 27009KT 20/M01 A2995 RMK A01 T02011006  RH  025%=      5-min Rain = 0
KTAS 181801Z 28011KT 20/M01 A2996 RMK A01 T02021011  RH  024%=      5-min Rain = 0
KTAS 181802Z 28008KT 20/M01 A2996 RMK A01 T02001013  RH  024%=      5-min Rain = 0
KTAS 181803Z 29005KT 20/M01 A2996 RMK A01 T01991012  RH  024%=      5-min Rain = 0
KTAS 181804Z 29005KT 20/M01 A2996 RMK A01 T01991013  RH  024%=      5-min Rain = 0
KTAS 181805Z 28008KT 20/M01 A2996 RMK A01 T02001009  RH  024%=      5-min Rain = 0
KTAS 181806Z 31006KT 20/M01 A2996 RMK A01 T02031008  RH  024%=      5-min Rain = 0
KTAS 181807Z 28007KT 20/M01 A2996 RMK A01 T02041009  RH  024%=      5-min Rain = 0
KTAS 181808Z 28006KT 20/M01 A2996 RMK A01 T02041010  RH  024%=      5-min Rain = 0
KTAS 181809Z 29005KT 20/M01 A2996 RMK A01 T02021012  RH  024%=      5-min Rain = 0
KTAS 181810Z 29006KT 20/M01 A2995 RMK A01 T02031008  RH  024%=      5-min Rain = 0
KTAS 181811Z 30007KT 21/M01 A2996 RMK A01 T02051013  RH  023%=      5-min Rain = 0
KTAS 181812Z 30005KT 21/M02 A2995 RMK A01 T02051016  RH  023%=      5-min Rain = 0
KTAS 181813Z 31004KT 20/M02 A2995 RMK A01 T02041017  RH  022%=      5-min Rain = 0
KTAS 181814Z 30008KT 20/M02 A2995 RMK A01 T02041020  RH  022%=      5-min Rain = 0
KTAS 181815Z 32007KT 20/M03 A2995 RMK A01 T02031027  RH  021%=      5-min Rain = 0
KTAS 181816Z 29008KT 20/M02 A2995 RMK A01 T02041023  RH  022%=      5-min Rain = 0
KTAS 181817Z 30011KT 21/M02 A2995 RMK A01 T02051022  RH  022%=      5-min Rain = 0
KTAS 181818Z 31010KT 21/M02 A2995 RMK A01 T02061021  RH  022%=      5-min Rain = 0
KTAS 181819Z 30009KT 21/M02 A2995 RMK A01 T02071021  RH  021%=      5-min Rain = 0
KTAS 181820Z 29007KT 21/M02 A2995 RMK A01 T02091022  RH  021%=      5-min Rain = 0
KTAS 181821Z 27006KT 21/M03 A2995 RMK A01 T02061025  RH  021%=      5-min Rain = 0
KTAS 181822Z 27005KT 20/M03 A2995 RMK A01 T02041025  RH  021%=      5-min Rain = 0
KTAS 181823Z 30004KT 20/M02 A2995 RMK A01 T02031023  RH  022%=      5-min Rain = 0
KTAS 181824Z 33007KT 20/M02 A2995 RMK A01 T02041019  RH  022%=      5-min Rain = 0
KTAS 181825Z 33008KT 21/M02 A2995 RMK A01 T02071018  RH  022%=      5-min Rain = 0
KTAS 181826Z 31006KT 21/M02 A2995 RMK A01 T02081019  RH  022%=      5-min Rain = 0
KTAS 181827Z 29008KT 21/M02 A2995 RMK A01 T02091019  RH  022%=      5-min Rain = 0
KTAS 181828Z 30005KT 21/M02 A2994 RMK A01 T02071022  RH  021%=      5-min Rain = 0
KTAS 181829Z 30006KT 21/M02 A2994 RMK A01 T02061021  RH  021%=      5-min Rain = 0
KTAS 181830Z 26007KT 21/M02 A2994 RMK A01 T02091023  RH  021%=      5-min Rain = 0
KTAS 181831Z 25007KT 21/M03 A2994 RMK A01 T02091026  RH  020%=      5-min Rain = 0
KTAS 181832Z 23006KT 21/M03 A2994 RMK A01 T02091026  RH  020%=      5-min Rain = 0
KTAS 181833Z 25006KT 21/M03 A2994 RMK A01 T02061031  RH  020%=      5-min Rain = 0
KTAS 181834Z 24004KT 20/M03 A2993 RMK A01 T02041028  RH  021%=      5-min Rain = 0
KTAS 181835Z 24005KT 20/M03 A2993 RMK A01 T02041029  RH  021%=      5-min Rain = 0
KTAS 181836Z 25004KT 20/M03 A2994 RMK A01 T02041028  RH  021%=      5-min Rain = 0
KTAS 181837Z 26006KT 21/M03 A2994 RMK A01 T02051025  RH  021%=      5-min Rain = 0
KTAS 181838Z 26005KT 21/M03 A2994 RMK A01 T02061025  RH  021%=      5-min Rain = 0
KTAS 181839Z 26006KT 20/M03 A2993 RMK A01 T02041025  RH  021%=      5-min Rain = 0
KTAS 181840Z 27005KT 21/M03 A2993 RMK A01 T02051026  RH  021%=      5-min Rain = 0
KTAS 181841Z 29004KT 20/M03 A2993 RMK A01 T02041027  RH  021%=      5-min Rain = 0
KTAS 181842Z 27004KT 21/M03 A2993 RMK A01 T02051025  RH  021%=      5-min Rain = 0
KTAS 181843Z 25006KT 21/M02 A2993 RMK A01 T02081021  RH  021%=      5-min Rain = 0
KTAS 181844Z 26006KT 21/M02 A2993 RMK A01 T02101022  RH  021%=      5-min Rain = 0
KTAS 181845Z 27005KT 21/M02 A2993 RMK A01 T02091024  RH  021%=      5-min Rain = 0
KTAS 181846Z 27005KT 21/M02 A2993 RMK A01 T02081024  RH  021%=      5-min Rain = 0
KTAS 181847Z 28005KT 21/M03 A2993 RMK A01 T02081026  RH  021%=      5-min Rain = 0
KTAS 181848Z 28004KT 21/M03 A2993 RMK A01 T02071025  RH  021%=      5-min Rain = 0
KTAS 181849Z 30005KT 21/M02 A2993 RMK A01 T02101022  RH  021%=      5-min Rain = 0
KTAS 181850Z 26005KT 21/M02 A2993 RMK A01 T02111021  RH  021%=      5-min Rain = 0
KTAS 181851Z 26004KT 21/M02 A2993 RMK A01 T02121023  RH  021%=      5-min Rain = 0
KTAS 181852Z 28003KT 21/M03 A2993 RMK A01 T02091025  RH  021%=      5-min Rain = 0
KTAS 181853Z 32005KT 21/M02 A2993 RMK A01 T02071023  RH  021%=      5-min Rain = 0
KTAS 181854Z 27006KT 21/M02 A2993 RMK A01 T02061024  RH  021%=      5-min Rain = 0
KTAS 181855Z 25004KT 21/M02 A2993 RMK A01 T02051024  RH  021%=      5-min Rain = 0
KTAS 181856Z 25004KT 21/M02 A2993 RMK A01 T02051022  RH  022%=      5-min Rain = 0
KTAS 181857Z 27000KT 21/M02 A2993 RMK A01 T02051023  RH  021%=      5-min Rain = 0
KTAS 181858Z 25002KT 21/M02 A2992 RMK A01 T02071021  RH  021%=      5-min Rain = 0
KTAS 181859Z 23004KT 21/M02 A2992 RMK A01 T02081022  RH  021%=      5-min Rain = 0
KTAS 181900Z 27005G13KT 21/M02 A2992 RMK A01 T02101019  RH  021%=      5-min Rain = 0
KTAS 181901Z 27005KT 21/M02 A2992 RMK A01 T02131019  RH  021%=      5-min Rain = 0
KTAS 181902Z 27005KT 21/M02 A2992 RMK A01 T02111023  RH  021%=      5-min Rain = 0
KTAS 181903Z 25007KT 21/M02 A2992 RMK A01 T02101022  RH  021%=      5-min Rain = 0
KTAS 181904Z 25005KT 21/M02 A2992 RMK A01 T02121021  RH  021%=      5-min Rain = 0
KTAS 181905Z 25006KT 21/M02 A2992 RMK A01 T02111019  RH  021%=      5-min Rain = 0
KTAS 181906Z 24005KT 21/M02 A2992 RMK A01 T02091018  RH  022%=      5-min Rain = 0
KTAS 181907Z 24004KT 21/M02 A2992 RMK A01 T02101018  RH  022%=      5-min Rain = 0
KTAS 181908Z 23004KT 21/M02 A2992 RMK A01 T02111017  RH  022%=      5-min Rain = 0
KTAS 181909Z 23003KT 21/M02 A2992 RMK A01 T02111020  RH  021%=      5-min Rain = 0
KTAS 181910Z 23005KT 21/M02 A2992 RMK A01 T02101019  RH  021%=      5-min Rain = 0
KTAS 181911Z 26006KT 21/M02 A2992 RMK A01 T02121016  RH  022%=      5-min Rain = 0
KTAS 181912Z 27007KT 21/M02 A2992 RMK A01 T02121017  RH  021%=      5-min Rain = 0
KTAS 181913Z 28005KT 21/M02 A2992 RMK A01 T02111016  RH  022%=      5-min Rain = 0
KTAS 181914Z 28003KT 21/M02 A2992 RMK A01 T02101017  RH  022%=      5-min Rain = 0
KTAS 181915Z 25006KT 21/M02 A2991 RMK A01 T02091019  RH  022%=      5-min Rain = 0
KTAS 181916Z 24005KT 21/M02 A2991 RMK A01 T02081021  RH  021%=      5-min Rain = 0
KTAS 181917Z 23002KT 21/M02 A2991 RMK A01 T02081020  RH  021%=      5-min Rain = 0
KTAS 181918Z 25003KT 21/M02 A2991 RMK A01 T02091020  RH  021%=      5-min Rain = 0
KTAS 181919Z 27003KT 21/M02 A2991 RMK A01 T02111019  RH  021%=      5-min Rain = 0
KTAS 181920Z 26005KT 21/M02 A2991 RMK A01 T02111017  RH  022%=      5-min Rain = 0
KTAS 181921Z 26007KT 21/M02 A2991 RMK A01 T02111017  RH  022%=      5-min Rain = 0
KTAS 181922Z 25006KT 21/M02 A2991 RMK A01 T02121019  RH  021%=      5-min Rain = 0
KTAS 181923Z 27006KT 21/M02 A2991 RMK A01 T02131016  RH  021%=      5-min Rain = 0
KTAS 181924Z 29004KT 21/M02 A2991 RMK A01 T02131017  RH  021%=      5-min Rain = 0
KTAS 181925Z 28003KT 21/M02 A2991 RMK A01 T02121019  RH  021%=      5-min Rain = 0
KTAS 181926Z 27003KT 21/M02 A2991 RMK A01 T02101020  RH  021%=      5-min Rain = 0
KTAS 181927Z 26001KT 21/M02 A299 RMK A01 T02111016  RH  022%=      5-min Rain = 0
KTAS 181928Z 24000KT 21/M02 A299 RMK A01 T02131018  RH  021%=      5-min Rain = 0
KTAS 181929Z 22003KT 21/M02 A299 RMK A01 T02141017  RH  021%=      5-min Rain = 0
KTAS 181930Z 24004KT 22/M02 A299 RMK A01 T02151016  RH  021%=      5-min Rain = 0
KTAS 181931Z 27004KT 22/M02 A299 RMK A01 T02161017  RH  021%=      5-min Rain = 0
KTAS 181932Z 26007KT 22/M02 A299 RMK A01 T02181015  RH  021%=      5-min Rain = 0
KTAS 181933Z 26005KT 22/M02 A299 RMK A01 T02171019  RH  021%=      5-min Rain = 0
KTAS 181934Z 23004KT 22/M02 A299 RMK A01 T02151019  RH  021%=      5-min Rain = 0
KTAS 181935Z 22003KT 21/M02 A299 RMK A01 T02141019  RH  021%=      5-min Rain = 0
KTAS 181936Z 24004KT 22/M02 A299 RMK A01 T02151019  RH  021%=      5-min Rain = 0
KTAS 181937Z 28007KT 22/M02 A299 RMK A01 T02171016  RH  021%=      5-min Rain = 0
KTAS 181938Z 30006KT 22/M02 A299 RMK A01 T02201018  RH  020%=      5-min Rain = 0
KTAS 181939Z 30005KT 22/M02 A299 RMK A01 T02201020  RH  020%=      5-min Rain = 0
KTAS 181940Z 30004KT 22/M02 A299 RMK A01 T02181021  RH  020%=      5-min Rain = 0
KTAS 181941Z 24005KT 22/M02 A299 RMK A01 T02201019  RH  020%=      5-min Rain = 0
KTAS 181942Z 24006KT 22/M02 A299 RMK A01 T02201019  RH  020%=      5-min Rain = 0
KTAS 181943Z 26002KT 22/M02 A299 RMK A01 T02181021  RH  020%=      5-min Rain = 0
KTAS 181944Z 22003KT 22/M02 A299 RMK A01 T02191016  RH  021%=      5-min Rain = 0
KTAS 181945Z 19002KT 22/M02 A299 RMK A01 T02201021  RH  020%=      5-min Rain = 0
KTAS 181946Z 23005KT 22/M02 A2989 RMK A01 T02211018  RH  020%=      5-min Rain = 0
KTAS 181947Z 22007KT 22/M02 A2989 RMK A01 T02231018  RH  020%=      5-min Rain = 0
KTAS 181948Z 23007KT 22/M02 A2989 RMK A01 T02211022  RH  019%=      5-min Rain = 0
KTAS 181949Z 24007KT 22/M02 A2989 RMK A01 T02221019  RH  020%=      5-min Rain = 0
KTAS 181950Z 24006KT 22/M02 A2989 RMK A01 T02231021  RH  019%=      5-min Rain = 0
KTAS 181951Z 22005KT 22/M02 A2989 RMK A01 T02241017  RH  020%=      5-min Rain = 0
KTAS 181952Z 24005KT 23/M02 A2989 RMK A01 T02251019  RH  019%=      5-min Rain = 0
KTAS 181953Z 27006KT 23/M02 A2989 RMK A01 T02251022  RH  019%=      5-min Rain = 0
KTAS 181954Z 26005KT 22/M03 A2989 RMK A01 T02231025  RH  019%=      5-min Rain = 0
KTAS 181955Z 26004KT 22/M02 A2989 RMK A01 T02211024  RH  019%=      5-min Rain = 0
KTAS 181956Z 24003KT 22/M02 A2989 RMK A01 T02221023  RH  019%=      5-min Rain = 0
KTAS 181957Z 26003KT 23/M02 A2989 RMK A01 T02251020  RH  019%=      5-min Rain = 0
KTAS 181958Z 21003KT 23/M02 A2989 RMK A01 T02271024  RH  019%=      5-min Rain = 0
KTAS 181959Z 19002KT 23/M03 A2989 RMK A01 T02251027  RH  018%=      5-min Rain = 0
KTAS 182000Z 28003KT 23/M02 A2989 RMK A01 T02251022  RH  019%=      5-min Rain = 0
KTAS 182001Z 26002KT 22/M03 A2989 RMK A01 T02241027  RH  019%=      5-min Rain = 0
KTAS 182002Z 27002KT 22/M03 A2989 RMK A01 T02221026  RH  019%=      5-min Rain = 0
KTAS 182003Z 28005KT 22/M03 A2989 RMK A01 T02241026  RH  019%=      5-min Rain = 0
KTAS 182004Z 30005KT 22/M03 A2989 RMK A01 T02231033  RH  018%=      5-min Rain = 0
KTAS 182005Z 32004KT 22/M03 A2989 RMK A01 T02221033  RH  018%=      5-min Rain = 0
KTAS 182006Z 32002KT 22/M04 A2989 RMK A01 T02201035  RH  018%=      5-min Rain = 0
KTAS 182007Z 28007KT 22/M03 A2988 RMK A01 T02211030  RH  018%=      5-min Rain = 0
KTAS 182008Z 28007KT 23/M03 A2988 RMK A01 T02251030  RH  018%=      5-min Rain = 0
KTAS 182009Z 27005KT 22/M03 A2989 RMK A01 T02241033  RH  018%=      5-min Rain = 0
KTAS 182010Z 28004KT 22/M03 A2988 RMK A01 T02221034  RH  018%=      5-min Rain = 0
KTAS 182011Z 28004KT 22/M03 A2988 RMK A01 T02211034  RH  018%=      5-min Rain = 0
KTAS 182012Z 25003KT 22/M03 A2988 RMK A01 T02231029  RH  018%=      5-min Rain = 0
KTAS 182013Z 25003KT 23/M03 A2988 RMK A01 T02251033  RH  018%=      5-min Rain = 0
KTAS 182014Z 25004KT 22/M03 A2988 RMK A01 T02241031  RH  018%=      5-min Rain = 0
KTAS 182015Z 25005KT 22/M03 A2988 RMK A01 T02231034  RH  018%=      5-min Rain = 0
KTAS 182016Z 23006KT 22/M03 A2988 RMK A01 T02221033  RH  018%=      5-min Rain = 0
KTAS 182017Z 25004KT 22/M03 A2988 RMK A01 T02221032  RH  018%=      5-min Rain = 0
KTAS 182018Z 28006KT 22/M03 A2988 RMK A01 T02241029  RH  018%=      5-min Rain = 0
KTAS 182019Z 28006KT 23/M03 A2988 RMK A01 T02261028  RH  018%=      5-min Rain = 0
KTAS 182020Z 28006KT 23/M03 A2988 RMK A01 T02271028  RH  018%=      5-min Rain = 0
KTAS 182021Z 27006KT 23/M03 A2988 RMK A01 T02271029  RH  018%=      5-min Rain = 0
KTAS 182022Z 25005KT 23/M03 A2988 RMK A01 T02261031  RH  018%=      5-min Rain = 0
KTAS 182023Z 26004KT 23/M03 A2988 RMK A01 T02261032  RH  018%=      5-min Rain = 0
KTAS 182024Z 29002KT 22/M03 A2988 RMK A01 T02241032  RH  018%=      5-min Rain = 0
KTAS 182025Z 30003KT 22/M03 A2988 RMK A01 T02231032  RH  018%=      5-min Rain = 0
KTAS 182026Z 27005KT 22/M03 A2988 RMK A01 T02241030  RH  018%=      5-min Rain = 0
KTAS 182027Z 29004KT 22/M03 A2988 RMK A01 T02241030  RH  018%=      5-min Rain = 0
KTAS 182028Z 29003KT 22/M03 A2988 RMK A01 T02241030  RH  018%=      5-min Rain = 0
KTAS 182029Z 31002KT 22/M03 A2988 RMK A01 T02241031  RH  018%=      5-min Rain = 0
KTAS 182030Z 31002KT 23/M03 A2988 RMK A01 T02251030  RH  018%=      5-min Rain = 0
KTAS 182031Z 31003KT 23/M03 A2988 RMK A01 T02261028  RH  018%=      5-min Rain = 0
KTAS 182032Z 31002KT 23/M03 A2988 RMK A01 T02281027  RH  018%=      5-min Rain = 0
KTAS 182033Z 28001KT 23/M03 A2988 RMK A01 T02301028  RH  018%=      5-min Rain = 0
KTAS 182034Z 26003KT 23/M03 A2988 RMK A01 T02311028  RH  018%=      5-min Rain = 0
KTAS 182035Z 30005KT 23/M03 A2988 RMK A01 T02301028  RH  018%=      5-min Rain = 0
KTAS 182036Z 31004KT 23/M03 A2988 RMK A01 T02281027  RH  018%=      5-min Rain = 0
KTAS 182037Z 29004KT 23/M02 A2988 RMK A01 T02281024  RH  018%=      5-min Rain = 0
KTAS 182038Z 30005KT 23/M03 A2988 RMK A01 T02301025  RH  018%=      5-min Rain = 0
KTAS 182039Z 31006KT 23/M02 A2988 RMK A01 T02301024  RH  018%=      5-min Rain = 0
KTAS 182040Z 30005KT 23/M03 A2988 RMK A01 T02281027  RH  018%=      5-min Rain = 0
KTAS 182041Z 33003KT 23/M03 A2988 RMK A01 T02261025  RH  019%=      5-min Rain = 0
KTAS 182042Z 34005KT 23/M02 A2988 RMK A01 T02281023  RH  019%=      5-min Rain = 0
KTAS 182043Z 32003KT 23/M03 A2988 RMK A01 T02281026  RH  018%=      5-min Rain = 0
KTAS 182044Z 28005KT 23/M03 A2988 RMK A01 T02281026  RH  018%=      5-min Rain = 0
KTAS 182045Z 29005KT 23/M03 A2988 RMK A01 T02271025  RH  018%=      5-min Rain = 0
KTAS 182046Z 29005KT 23/M03 A2988 RMK A01 T02271025  RH  019%=      5-min Rain = 0
KTAS 182047Z 30004KT 23/M03 A2988 RMK A01 T02271025  RH  018%=      5-min Rain = 0
KTAS 182048Z 30003KT 23/M03 A2988 RMK A01 T02271025  RH  018%=      5-min Rain = 0
KTAS 182049Z 32004KT 23/M03 A2988 RMK A01 T02281027  RH  018%=      5-min Rain = 0
KTAS 182050Z 31004KT 23/M02 A2988 RMK A01 T02301024  RH  018%=      5-min Rain = 0
KTAS 182051Z 31004KT 23/M02 A2988 RMK A01 T02311024  RH  018%=      5-min Rain = 0
KTAS 182052Z 27003KT 23/M02 A2988 RMK A01 T02321024  RH  018%=      5-min Rain = 0
KTAS 182053Z 27004KT 23/M03 A2988 RMK A01 T02311027  RH  018%=      5-min Rain = 0
KTAS 182054Z 27003KT 23/M03 A2988 RMK A01 T02281027  RH  018%=      5-min Rain = 0
KTAS 182055Z 28003KT 23/M03 A2988 RMK A01 T02271026  RH  018%=      5-min Rain = 0
KTAS 182056Z 27000KT 23/M03 A2988 RMK A01 T02271027  RH  018%=      5-min Rain = 0
KTAS 182057Z 30001KT 23/M02 A2988 RMK A01 T02281024  RH  018%=      5-min Rain = 0
KTAS 182058Z 33003KT 23/M02 A2988 RMK A01 T02291023  RH  018%=      5-min Rain = 0
KTAS 182059Z 33005KT 23/M02 A2988 RMK A01 T02301024  RH  018%=      5-min Rain = 0
KTAS 182100Z 34003KT 23/M03 A2988 RMK A01 T02301025  RH  018%=      5-min Rain = 0
KTAS 182101Z 33005KT 23/M02 A2988 RMK A01 T02311024  RH  018%=      5-min Rain = 0
KTAS 182102Z 32006KT 23/M02 A2988 RMK A01 T02331023  RH  018%=      5-min Rain = 0
KTAS 182103Z 31006KT 23/M03 A2988 RMK A01 T02331025  RH  018%=      5-min Rain = 0
KTAS 182104Z 31006KT 23/M02 A2989 RMK A01 T02321024  RH  018%=      5-min Rain = 0
KTAS 182105Z 31006KT 23/M03 A2989 RMK A01 T02321025  RH  018%=      5-min Rain = 0
KTAS 182106Z 30006KT 23/M03 A2989 RMK A01 T02301026  RH  018%=      5-min Rain = 0
KTAS 182107Z 29004KT 23/M03 A2989 RMK A01 T02281025  RH  018%=      5-min Rain = 0
KTAS 182108Z 28005KT 23/M02 A2989 RMK A01 T02271024  RH  019%=      5-min Rain = 0
KTAS 182109Z 30003KT 23/M02 A2989 RMK A01 T02271023  RH  019%=      5-min Rain = 0
KTAS 182110Z 31007KT 23/M02 A2989 RMK A01 T02271022  RH  019%=      5-min Rain = 0
KTAS 182111Z 32006KT 23/M02 A2989 RMK A01 T02261023  RH  019%=      5-min Rain = 0
KTAS 182112Z 34007KT 23/M02 A2989 RMK A01 T02251022  RH  019%=      5-min Rain = 0
KTAS 182113Z 33007KT 23/M02 A2989 RMK A01 T02261020  RH  019%=      5-min Rain = 0
KTAS 182114Z 33004KT 23/M02 A2989 RMK A01 T02251020  RH  019%=      5-min Rain = 0
KTAS 182115Z 36005KT 23/M02 A2989 RMK A01 T02261018  RH  020%=      5-min Rain = 0
KTAS 182116Z 36004KT 23/M02 A2989 RMK A01 T02271018  RH  019%=      5-min Rain = 0
KTAS 182117Z 34005KT 23/M02 A2989 RMK A01 T02281019  RH  019%=      5-min Rain = 0
KTAS 182118Z 33006KT 23/M02 A2989 RMK A01 T02271020  RH  019%=      5-min Rain = 0
KTAS 182119Z 34007KT 23/M02 A2989 RMK A01 T02281020  RH  019%=      5-min Rain = 0
KTAS 182120Z 34007KT 23/M02 A2989 RMK A01 T02281020  RH  019%=      5-min Rain = 0
KTAS 182121Z 34008KT 23/M02 A2989 RMK A01 T02271018  RH  019%=      5-min Rain = 0
KTAS 182122Z 32005KT 23/M02 A2989 RMK A01 T02261019  RH  019%=      5-min Rain = 0
KTAS 182123Z 33005KT 23/M02 A2989 RMK A01 T02261017  RH  020%=      5-min Rain = 0
KTAS 182124Z 33007KT 23/M02 A2989 RMK A01 T02281017  RH  019%=      5-min Rain = 0
KTAS 182125Z 32007KT 23/M02 A2989 RMK A01 T02281016  RH  020%=      5-min Rain = 0
KTAS 182126Z 33006KT 23/M02 A2989 RMK A01 T02301016  RH  019%=      5-min Rain = 0
KTAS 182127Z 34007KT 23/M02 A2989 RMK A01 T02291017  RH  019%=      5-min Rain = 0
KTAS 182128Z 34006KT 23/M02 A2989 RMK A01 T02271018  RH  019%=      5-min Rain = 0
KTAS 182129Z 35005KT 23/M02 A2989 RMK A01 T02271016  RH  020%=      5-min Rain = 0
KTAS 182130Z 35004KT 23/M02 A2989 RMK A01 T02271016  RH  020%=      5-min Rain = 0
KTAS 182131Z 36005KT 23/M02 A2989 RMK A01 T02271016  RH  020%=      5-min Rain = 0
KTAS 182132Z 35005KT 23/M02 A2989 RMK A01 T02261017  RH  020%=      5-min Rain = 0
KTAS 182133Z 35005KT 23/M02 A2989 RMK A01 T02251018  RH  020%=      5-min Rain = 0
KTAS 182134Z 35003KT 22/M02 A299 RMK A01 T02241019  RH  020%=      5-min Rain = 0
KTAS 182135Z 01003KT 22/M02 A299 RMK A01 T02241017  RH  020%=      5-min Rain = 0
KTAS 182136Z 00004KT 23/M02 A299 RMK A01 T02251015  RH  020%=      5-min Rain = 0
KTAS 182137Z 34007KT 23/M01 A299 RMK A01 T02271014  RH  020%=      5-min Rain = 0
KTAS 182138Z 33005KT 23/M02 A299 RMK A01 T02261016  RH  020%=      5-min Rain = 0
KTAS 182139Z 34006G11KT 23/M02 A299 RMK A01 T02251016  RH  020%=      5-min Rain = 0
KTAS 182140Z 36006KT 23/M01 A299 RMK A01 T02261013  RH  020%=      5-min Rain = 0
KTAS 182141Z 36005KT 23/M01 A299 RMK A01 T02281012  RH  020%=      5-min Rain = 0
KTAS 182142Z 35005KT 23/M01 A299 RMK A01 T02281013  RH  020%=      5-min Rain = 0
KTAS 182143Z 35005KT 23/M01 A299 RMK A01 T02291013  RH  020%=      5-min Rain = 0
KTAS 182144Z 35006KT 23/M01 A299 RMK A01 T02291012  RH  020%=      5-min Rain = 0
KTAS 182145Z 34007KT 23/M01 A299 RMK A01 T02281012  RH  020%=      5-min Rain = 0
KTAS 182146Z 35006KT 23/M01 A299 RMK A01 T02281011  RH  020%=      5-min Rain = 0
KTAS 182147Z 33007KT 23/M01 A299 RMK A01 T02291011  RH  020%=      5-min Rain = 0
KTAS 182148Z 34006KT 23/M01 A299 RMK A01 T02291011  RH  020%=      5-min Rain = 0
KTAS 182149Z 33007KT 23/M01 A299 RMK A01 T02301011  RH  020%=      5-min Rain = 0
KTAS 182150Z 34007KT 23/M01 A299 RMK A01 T02301012  RH  020%=      5-min Rain = 0
KTAS 182151Z 35008KT 23/M01 A299 RMK A01 T02301012  RH  020%=      5-min Rain = 0
KTAS 182152Z 35006KT 23/M02 A299 RMK A01 T02291015  RH  020%=      5-min Rain = 0
KTAS 182153Z 35006KT 23/M01 A299 RMK A01 T02291014  RH  020%=      5-min Rain = 0
KTAS 182154Z 00006KT 23/M01 A299 RMK A01 T02291014  RH  020%=      5-min Rain = 0
KTAS 182155Z 01009KT 23/M01 A299 RMK A01 T02281014  RH  020%=      5-min Rain = 0
KTAS 182156Z 35010KT 23/M01 A299 RMK A01 T02271014  RH  020%=      5-min Rain = 0
KTAS 182157Z 33008KT 23/M01 A299 RMK A01 T02261014  RH  020%=      5-min Rain = 0
KTAS 182158Z 34009KT 23/M01 A299 RMK A01 T02271014  RH  020%=      5-min Rain = 0
KTAS 182159Z 34007KT 23/M02 A299 RMK A01 T02261015  RH  020%=      5-min Rain = 0
KTAS 182200Z 34007KT 23/M02 A299 RMK A01 T02261015  RH  020%=      5-min Rain = 0
KTAS 182201Z 35007KT 23/M01 A299 RMK A01 T02261014  RH  020%=      5-min Rain = 0
KTAS 182202Z 35007KT 23/M01 A299 RMK A01 T02261014  RH  020%=      5-min Rain = 0
KTAS 182203Z 36006KT 23/M02 A299 RMK A01 T02251015  RH  020%=      5-min Rain = 0
KTAS 182204Z 35007KT 23/M01 A299 RMK A01 T02251014  RH  020%=      5-min Rain = 0
KTAS 182205Z 00008KT 23/M01 A299 RMK A01 T02261013  RH  020%=      5-min Rain = 0
KTAS 182206Z 36008KT 23/M01 A299 RMK A01 T02261013  RH  020%=      5-min Rain = 0
KTAS 182207Z 00007KT 23/M01 A299 RMK A01 T02261013  RH  020%=      5-min Rain = 0
KTAS 182208Z 01006KT 23/M01 A299 RMK A01 T02251013  RH  020%=      5-min Rain = 0
KTAS 182209Z 01006KT 23/M01 A299 RMK A01 T02261013  RH  020%=      5-min Rain = 0
KTAS 182210Z 35006KT 23/M01 A299 RMK A01 T02261013  RH  020%=      5-min Rain = 0
KTAS 182211Z 01005KT 23/M01 A299 RMK A01 T02261012  RH  020%=      5-min Rain = 0
KTAS 182212Z 01007KT 23/M01 A299 RMK A01 T02271012  RH  020%=      5-min Rain = 0
KTAS 182213Z 01006KT 23/M01 A299 RMK A01 T02271012  RH  020%=      5-min Rain = 0
KTAS 182214Z 35006KT 23/M01 A299 RMK A01 T02261013  RH  020%=      5-min Rain = 0
KTAS 182215Z 00007KT 23/M01 A299 RMK A01 T02261013  RH  020%=      5-min Rain = 0
KTAS 182216Z 01006KT 23/M01 A299 RMK A01 T02261012  RH  020%=      5-min Rain = 0
KTAS 182217Z 01005KT 23/M01 A299 RMK A01 T02251013  RH  020%=      5-min Rain = 0
KTAS 182218Z 02006KT 23/M01 A299 RMK A01 T02251013  RH  020%=      5-min Rain = 0
KTAS 182219Z 01007KT 23/M01 A299 RMK A01 T02251012  RH  021%=      5-min Rain = 0
KTAS 182220Z 00008KT 22/M01 A299 RMK A01 T02241013  RH  021%=      5-min Rain = 0
KTAS 182221Z 00008KT 22/M01 A299 RMK A01 T02231014  RH  020%=      5-min Rain = 0
KTAS 182222Z 00006KT 22/M01 A299 RMK A01 T02231014  RH  021%=      5-min Rain = 0
KTAS 182223Z 01007KT 22/M01 A299 RMK A01 T02231013  RH  021%=      5-min Rain = 0
KTAS 182224Z 01008KT 22/M01 A299 RMK A01 T02231013  RH  021%=      5-min Rain = 0
KTAS 182225Z 01007KT 22/M01 A299 RMK A01 T02221013  RH  021%=      5-min Rain = 0
KTAS 182226Z 01007KT 22/M01 A299 RMK A01 T02221012  RH  021%=      5-min Rain = 0
KTAS 182227Z 01006KT 22/M01 A299 RMK A01 T02221013  RH  021%=      5-min Rain = 0
KTAS 182228Z 01006KT 22/M01 A299 RMK A01 T02221011  RH  021%=      5-min Rain = 0
KTAS 182229Z 01007KT 22/M01 A299 RMK A01 T02221012  RH  021%=      5-min Rain = 0
KTAS 182230Z 01007KT 22/M01 A299 RMK A01 T02211014  RH  021%=      5-min Rain = 0
KTAS 182231Z 36005KT 22/M01 A299 RMK A01 T02201013  RH  021%=      5-min Rain = 0
KTAS 182232Z 01005KT 22/M01 A299 RMK A01 T02211011  RH  021%=      5-min Rain = 0
KTAS 182233Z 01006KT 22/M01 A299 RMK A01 T02211012  RH  021%=      5-min Rain = 0
KTAS 182234Z 01006KT 22/M01 A299 RMK A01 T02201012  RH  021%=      5-min Rain = 0
KTAS 182235Z 00005KT 22/M01 A299 RMK A01 T02201013  RH  021%=      5-min Rain = 0
KTAS 182236Z 01005KT 22/M01 A299 RMK A01 T02201014  RH  021%=      5-min Rain = 0
KTAS 182237Z 01003KT 22/M01 A299 RMK A01 T02191014  RH  021%=      5-min Rain = 0
KTAS 182238Z 02004KT 22/M01 A299 RMK A01 T02201012  RH  021%=      5-min Rain = 0
KTAS 182239Z 01005KT 22/M01 A299 RMK A01 T02201014  RH  021%=      5-min Rain = 0
KTAS 182240Z 01004KT 22/M01 A299 RMK A01 T02201013  RH  021%=      5-min Rain = 0
KTAS 182241Z 02003KT 22/M01 A299 RMK A01 T02201012  RH  021%=      5-min Rain = 0
KTAS 182242Z 02004KT 22/M01 A299 RMK A01 T02201010  RH  021%=      5-min Rain = 0
KTAS 182243Z 03004KT 22/M01 A299 RMK A01 T02201009  RH  022%=      5-min Rain = 0
KTAS 182244Z 01004KT 22/M01 A299 RMK A01 T02201009  RH  022%=      5-min Rain = 0
KTAS 182245Z 02005KT 22/M01 A299 RMK A01 T02201010  RH  022%=      5-min Rain = 0
KTAS 182246Z 02004KT 22/M01 A299 RMK A01 T02191009  RH  022%=      5-min Rain = 0
KTAS 182247Z 01004KT 22/M01 A2991 RMK A01 T02181009  RH  022%=      5-min Rain = 0
KTAS 182248Z 02006KT 22/M01 A2991 RMK A01 T02181010  RH  022%=      5-min Rain = 0
KTAS 182249Z 03005KT 22/M01 A2991 RMK A01 T02171011  RH  022%=      5-min Rain = 0
KTAS 182250Z 03005KT 22/M01 A2991 RMK A01 T02161011  RH  022%=      5-min Rain = 0
KTAS 182251Z 02004KT 22/M01 A2991 RMK A01 T02161011  RH  022%=      5-min Rain = 0
KTAS 182252Z 02005KT 22/M01 A2991 RMK A01 T02161010  RH  022%=      5-min Rain = 0
KTAS 182253Z 03005KT 22/M01 A2991 RMK A01 T02151011  RH  022%=      5-min Rain = 0
KTAS 182254Z 03004KT 22/M01 A2991 RMK A01 T02151012  RH  022%=      5-min Rain = 0
KTAS 182255Z 02004KT 21/M01 A2991 RMK A01 T02141012  RH  022%=      5-min Rain = 0
KTAS 182256Z 03004KT 21/M01 A2991 RMK A01 T02141012  RH  022%=      5-min Rain = 0
KTAS 182257Z 03003KT 21/M01 A2991 RMK A01 T02141012  RH  022%=      5-min Rain = 0
KTAS 182258Z 03003KT 21/M01 A2991 RMK A01 T02141011  RH  022%=      5-min Rain = 0
KTAS 182259Z 03002KT 21/M01 A2991 RMK A01 T02141012  RH  022%=      5-min Rain = 0
KTAS 182300Z 03003KT 21/M01 A2991 RMK A01 T02141011  RH  022%=      5-min Rain = 0
KTAS 182301Z 03003KT 21/M01 A2991 RMK A01 T02141012  RH  022%=      5-min Rain = 0
KTAS 182302Z 03004KT 21/M01 A2991 RMK A01 T02131012  RH  022%=      5-min Rain = 0
KTAS 182303Z 03004KT 21/M01 A2991 RMK A01 T02121012  RH  022%=      5-min Rain = 0
KTAS 182304Z 03003KT 21/M01 A2991 RMK A01 T02111011  RH  022%=      5-min Rain = 0
KTAS 182305Z 04003KT 21/M01 A2991 RMK A01 T02111011  RH  023%=      5-min Rain = 0
KTAS 182306Z 05003KT 21/M01 A2991 RMK A01 T02111011  RH  023%=      5-min Rain = 0
KTAS 182307Z 06003KT 21/M01 A2991 RMK A01 T02101011  RH  023%=      5-min Rain = 0
KTAS 182308Z 06003KT 21/M01 A2991 RMK A01 T02101011  RH  023%=      5-min Rain = 0
KTAS 182309Z 06002KT 21/M01 A2991 RMK A01 T02091011  RH  023%=      5-min Rain = 0
KTAS 182310Z 06002KT 21/M01 A2991 RMK A01 T02091010  RH  023%=      5-min Rain = 0
KTAS 182311Z 06003KT 21/M01 A2991 RMK A01 T02081009  RH  023%=      5-min Rain = 0
KTAS 182312Z 07003KT 21/M01 A2991 RMK A01 T02081009  RH  023%=      5-min Rain = 0
KTAS 182313Z 07003KT 21/M01 A2991 RMK A01 T02071009  RH  024%=      5-min Rain = 0
KTAS 182314Z 07003KT 21/M01 A2991 RMK A01 T02061008  RH  024%=      5-min Rain = 0
KTAS 182315Z 07003KT 20/M01 A2991 RMK A01 T02041008  RH  024%=      5-min Rain = 0
KTAS 182316Z 07003KT 20/M01 A2991 RMK A01 T02031008  RH  024%=      5-min Rain = 0
KTAS 182317Z 07003KT 20/M01 A2991 RMK A01 T02021008  RH  024%=      5-min Rain = 0
KTAS 182318Z 07003KT 20/M01 A2991 RMK A01 T02011008  RH  024%=      5-min Rain = 0
KTAS 182319Z 07003KT 20/M01 A2991 RMK A01 T02001008  RH  025%=      5-min Rain = 0
KTAS 182320Z 07003KT 20/M01 A2991 RMK A01 T01991008  RH  025%=      5-min Rain = 0
KTAS 182321Z 07003KT 20/M01 A2991 RMK A01 T01991008  RH  025%=      5-min Rain = 0
KTAS 182322Z 07003KT 20/M01 A2991 RMK A01 T01991008  RH  025%=      5-min Rain = 0
KTAS 182323Z 07002KT 20/M01 A2991 RMK A01 T01991007  RH  025%=      5-min Rain = 0
KTAS 182324Z 07002KT 20/M01 A2991 RMK A01 T01991007  RH  025%=      5-min Rain = 0
KTAS 182325Z 07002KT 20/M01 A2991 RMK A01 T01991006  RH  025%=      5-min Rain = 0
KTAS 182326Z 07002KT 20/M01 A2991 RMK A01 T01981006  RH  025%=      5-min Rain = 0
KTAS 182327Z 07002KT 20/M01 A2991 RMK A01 T01971006  RH  026%=      5-min Rain = 0
KTAS 182328Z 07002KT 20/M01 A2991 RMK A01 T01961006  RH  026%=      5-min Rain = 0
KTAS 182329Z 07002KT 20/M01 A2991 RMK A01 T01951006  RH  026%=      5-min Rain = 0
KTAS 182330Z 07003KT 20/M01 A2991 RMK A01 T01951006  RH  026%=      5-min Rain = 0
KTAS 182331Z 07003KT 20/M01 A2991 RMK A01 T01951007  RH  026%=      5-min Rain = 0
KTAS 182332Z 07003KT 20/M01 A2991 RMK A01 T01951007  RH  026%=      5-min Rain = 0
KTAS 182333Z 07003KT 19/M01 A2991 RMK A01 T01941007  RH  026%=      5-min Rain = 0
KTAS 182334Z 07003KT 19/M01 A2991 RMK A01 T01931007  RH  026%=      5-min Rain = 0
KTAS 182335Z 07003KT 19/M01 A2991 RMK A01 T01921007  RH  026%=      5-min Rain = 0
KTAS 182336Z 07003KT 19/M01 A2991 RMK A01 T01911007  RH  026%=      5-min Rain = 0
KTAS 182337Z 08003KT 19/M01 A2991 RMK A01 T01901007  RH  026%=      5-min Rain = 0
KTAS 182338Z 08003KT 19/M01 A2991 RMK A01 T01891007  RH  027%=      5-min Rain = 0
KTAS 182339Z 08003KT 19/M01 A2991 RMK A01 T01871007  RH  027%=      5-min Rain = 0
KTAS 182340Z 08003KT 19/M01 A2991 RMK A01 T01861007  RH  027%=      5-min Rain = 0
KTAS 182341Z 09003KT 18/M01 A2991 RMK A01 T01841008  RH  027%=      5-min Rain = 0
KTAS 182342Z 09003KT 18/M01 A2991 RMK A01 T01831008  RH  027%=      5-min Rain = 0
KTAS 182343Z 09003KT 18/M01 A2991 RMK A01 T01821008  RH  028%=      5-min Rain = 0
KTAS 182344Z 09003KT 18/M01 A2991 RMK A01 T01801010  RH  028%=      5-min Rain = 0
KTAS 182345Z 09003KT 18/M01 A2991 RMK A01 T01801010  RH  028%=      5-min Rain = 0
KTAS 182346Z 09004KT 18/M01 A2991 RMK A01 T01781010  RH  028%=      5-min Rain = 0
KTAS 182347Z 09003KT 18/M01 A2991 RMK A01 T01771011  RH  028%=      5-min Rain = 0
KTAS 182348Z 09003KT 18/M01 A2991 RMK A01 T01751011  RH  028%=      5-min Rain = 0
KTAS 182349Z 09003KT 18/M01 A2991 RMK A01 T01751011  RH  028%=      5-min Rain = 0
KTAS 182350Z 09003KT 17/M01 A2991 RMK A01 T01741011  RH  028%=      5-min Rain = 0
KTAS 182351Z 09003KT 18/M01 A2991 RMK A01 T01751012  RH  028%=      5-min Rain = 0
KTAS 182352Z 09003KT 18/M01 A2991 RMK A01 T01761012  RH  028%=      5-min Rain = 0
KTAS 182353Z 09004KT 18/M01 A2991 RMK A01 T01761011  RH  028%=      5-min Rain = 0
KTAS 182354Z 09004KT 18/M01 A2991 RMK A01 T01761012  RH  028%=      5-min Rain = 0
KTAS 182355Z 09004KT 18/M01 A2991 RMK A01 T01751012  RH  028%=      5-min Rain = 0
KTAS 182356Z 09004KT 17/M01 A2991 RMK A01 T01741012  RH  028%=      5-min Rain = 0
KTAS 182357Z 09004KT 17/M01 A2992 RMK A01 T01721012  RH  029%=      5-min Rain = 0
KTAS 182358Z 09004KT 17/M01 A2992 RMK A01 T01701011  RH  029%=      5-min Rain = 0
KTAS 182359Z 09004KT 17/M01 A2992 RMK A01 T01681012  RH  029%=      5-min Rain = 0
KTAS 190000Z 09004KT 17/M01 A2992 RMK A01 T01661012  RH  030%=      5-min Rain = 0
KTAS 190001Z 09004KT 16/M01 A2992 RMK A01 T01641012  RH  030%=      5-min Rain = 0
KTAS 190002Z 09004KT 16/M01 A2992 RMK A01 T01621011  RH  031%=      5-min Rain = 0
KTAS 190003Z 09004KT 16/M01 A2992 RMK A01 T01601011  RH  031%=      5-min Rain = 0
KTAS 190004Z 09004KT 16/M01 A2992 RMK A01 T01591011  RH  031%=      5-min Rain = 0
KTAS 190005Z 09004KT 16/M01 A2992 RMK A01 T01571010  RH  032%=      5-min Rain = 0
KTAS 190006Z 09004KT 16/M01 A2992 RMK A01 T01561010  RH  032%=      5-min Rain = 0
KTAS 190007Z 09004KT 16/M01 A2992 RMK A01 T01561011  RH  032%=      5-min Rain = 0
KTAS 190008Z 09004KT 16/M01 A2992 RMK A01 T01561011  RH  032%=      5-min Rain = 0
KTAS 190009Z 09004KT 16/M01 A2992 RMK A01 T01581012  RH  031%=      5-min Rain = 0
KTAS 190010Z 09003KT 16/M01 A2992 RMK A01 T01591012  RH  031%=      5-min Rain = 0
KTAS 190011Z 09003KT 16/M01 A2992 RMK A01 T01611012  RH  031%=      5-min Rain = 0
KTAS 190012Z 09003KT 16/M01 A2992 RMK A01 T01621012  RH  030%=      5-min Rain = 0
KTAS 190013Z 09003KT 16/M01 A2992 RMK A01 T01631013  RH  030%=      5-min Rain = 0
KTAS 190014Z 09003KT 16/M01 A2992 RMK A01 T01641012  RH  030%=      5-min Rain = 0
KTAS 190015Z 09004KT 17/M01 A2992 RMK A01 T01651012  RH  030%=      5-min Rain = 0
KTAS 190016Z 09004KT 17/M01 A2992 RMK A01 T01651012  RH  030%=      5-min Rain = 0
KTAS 190017Z 09004KT 17/M01 A2992 RMK A01 T01651012  RH  030%=      5-min Rain = 0
KTAS 190018Z 09004KT 16/M01 A2992 RMK A01 T01641012  RH  030%=      5-min Rain = 0
KTAS 190019Z 09005KT 16/M01 A2992 RMK A01 T01631012  RH  030%=      5-min Rain = 0
KTAS 190020Z 09005KT 16/M01 A2992 RMK A01 T01611012  RH  031%=      5-min Rain = 0
KTAS 190021Z 09005KT 16/M01 A2992 RMK A01 T01601012  RH  031%=      5-min Rain = 0
KTAS 190022Z 09005KT 16/M01 A2992 RMK A01 T01581012  RH  031%=      5-min Rain = 0
KTAS 190023Z 09005KT 16/M01 A2992 RMK A01 T01581012  RH  031%=      5-min Rain = 0
KTAS 190024Z 09004KT 16/M01 A2992 RMK A01 T01571013  RH  031%=      5-min Rain = 0
KTAS 190025Z 09004KT 16/M01 A2992 RMK A01 T01571013  RH  031%=      5-min Rain = 0
KTAS 190026Z 09004KT 16/M01 A2992 RMK A01 T01561013  RH  031%=      5-min Rain = 0
KTAS 190027Z 09005KT 16/M01 A2992 RMK A01 T01561013  RH  031%=      5-min Rain = 0
KTAS 190028Z 09005KT 16/M01 A2992 RMK A01 T01561013  RH  031%=      5-min Rain = 0
KTAS 190029Z 09004KT 16/M01 A2992 RMK A01 T01561013  RH  031%=      5-min Rain = 0
KTAS 190030Z 09005KT 16/M01 A2992 RMK A01 T01551013  RH  032%=      5-min Rain = 0
KTAS 190031Z 08005KT 15/M01 A2992 RMK A01 T01541013  RH  032%=      5-min Rain = 0
KTAS 190032Z 08005KT 15/M01 A2992 RMK A01 T01531013  RH  032%=      5-min Rain = 0
KTAS 190033Z 08005KT 15/M01 A2992 RMK A01 T01531013  RH  032%=      5-min Rain = 0
KTAS 190034Z 08005KT 15/M01 A2992 RMK A01 T01521013  RH  032%=      5-min Rain = 0
KTAS 190035Z 08005KT 15/M01 A2992 RMK A01 T01521014  RH  032%=      5-min Rain = 0
KTAS 190036Z 07005KT 15/M01 A2992 RMK A01 T01511013  RH  032%=      5-min Rain = 0
KTAS 190037Z 07005KT 15/M01 A2993 RMK A01 T01501012  RH  033%=      5-min Rain = 0
KTAS 190038Z 07005KT 15/M01 A2993 RMK A01 T01501012  RH  033%=      5-min Rain = 0
KTAS 190039Z 06005KT 15/M01 A2993 RMK A01 T01481012  RH  033%=      5-min Rain = 0
KTAS 190040Z 06005KT 15/M01 A2993 RMK A01 T01471011  RH  034%=      5-min Rain = 0
KTAS 190041Z 06005KT 15/M01 A2993 RMK A01 T01451010  RH  034%=      5-min Rain = 0
KTAS 190042Z 06005KT 14/M01 A2993 RMK A01 T01421010  RH  035%=      5-min Rain = 0
KTAS 190043Z 06006KT 14/M01 A2993 RMK A01 T01401010  RH  036%=      5-min Rain = 0
KTAS 190044Z 06006KT 14/M01 A2993 RMK A01 T01361010  RH  037%=      5-min Rain = 0
KTAS 190045Z 06006KT 13/M01 A2993 RMK A01 T01341009  RH  037%=      5-min Rain = 0
KTAS 190046Z 07006KT 13/M01 A2993 RMK A01 T01331008  RH  038%=      5-min Rain = 0
KTAS 190047Z 07005KT 13/M01 A2993 RMK A01 T01311008  RH  038%=      5-min Rain = 0
KTAS 190048Z 07005KT 13/M01 A2993 RMK A01 T01311008  RH  038%=      5-min Rain = 0
KTAS 190049Z 07005KT 13/M01 A2993 RMK A01 T01301009  RH  038%=      5-min Rain = 0
KTAS 190050Z 07005KT 13/M01 A2993 RMK A01 T01311009  RH  038%=      5-min Rain = 0
KTAS 190051Z 07005KT 13/M01 A2993 RMK A01 T01321010  RH  038%=      5-min Rain = 0
KTAS 190052Z 07005KT 13/M01 A2993 RMK A01 T01331009  RH  038%=      5-min Rain = 0
KTAS 190053Z 07005KT 13/M01 A2993 RMK A01 T01331009  RH  038%=      5-min Rain = 0
KTAS 190054Z 07005KT 13/M01 A2993 RMK A01 T01331009  RH  038%=      5-min Rain = 0
KTAS 190055Z 07005KT 13/M01 A2993 RMK A01 T01341008  RH  037%=      5-min Rain = 0
KTAS 190056Z 07005KT 13/M01 A2993 RMK A01 T01341008  RH  038%=      5-min Rain = 0
KTAS 190057Z 07005KT 13/M01 A2993 RMK A01 T01331008  RH  038%=      5-min Rain = 0
KTAS 190058Z 07005KT 13/M01 A2993 RMK A01 T01321008  RH  038%=      5-min Rain = 0
KTAS 190059Z 07006KT 13/M01 A2993 RMK A01 T01311008  RH  038%=      5-min Rain = 0
KTAS 190100Z 07006KT 13/M01 A2993 RMK A01 T01291007  RH  039%=      5-min Rain = 0
KTAS 190101Z 07006KT 13/M01 A2993 RMK A01 T01271007  RH  040%=      5-min Rain = 0
KTAS 190102Z 07006KT 13/M01 A2993 RMK A01 T01261007  RH  040%=      5-min Rain = 0
KTAS 190103Z 06006KT 13/M01 A2993 RMK A01 T01251007  RH  040%=      5-min Rain = 0
KTAS 190104Z 06005KT 13/M01 A2993 RMK A01 T01251007  RH  040%=      5-min Rain = 0
KTAS 190105Z 06005KT 13/M01 A2993 RMK A01 T01251006  RH  040%=      5-min Rain = 0
KTAS 190106Z 06005KT 13/M01 A2994 RMK A01 T01251006  RH  040%=      5-min Rain = 0
KTAS 190107Z 07005KT 13/M01 A2994 RMK A01 T01261007  RH  040%=      5-min Rain = 0
KTAS 190108Z 07005KT 13/M01 A2994 RMK A01 T01261007  RH  040%=      5-min Rain = 0
KTAS 190109Z 07005KT 13/M01 A2994 RMK A01 T01271008  RH  039%=      5-min Rain = 0
KTAS 190110Z 07005KT 13/M01 A2994 RMK A01 T01271008  RH  039%=      5-min Rain = 0
KTAS 190111Z 07005KT 13/M01 A2994 RMK A01 T01281007  RH  039%=      5-min Rain = 0
KTAS 190112Z 06004KT 13/M01 A2994 RMK A01 T01281007  RH  039%=      5-min Rain = 0
KTAS 190113Z 06004KT 13/M01 A2994 RMK A01 T01281007  RH  039%=      5-min Rain = 0
KTAS 190114Z 06004KT 13/M01 A2994 RMK A01 T01271007  RH  039%=      5-min Rain = 0
KTAS 190115Z 06004KT 13/M01 A2994 RMK A01 T01271007  RH  039%=      5-min Rain = 0
KTAS 190116Z 06004KT 13/M01 A2994 RMK A01 T01281007  RH  039%=      5-min Rain = 0
KTAS 190117Z 06004KT 13/M01 A2994 RMK A01 T01281007  RH  039%=      5-min Rain = 0
KTAS 190118Z 06005KT 13/M01 A2994 RMK A01 T01281007  RH  039%=      5-min Rain = 0
KTAS 190119Z 06005KT 13/M01 A2994 RMK A01 T01281007  RH  039%=      5-min Rain = 0
KTAS 190120Z 06004KT 13/M01 A2994 RMK A01 T01281007  RH  039%=      5-min Rain = 0
KTAS 190121Z 06004KT 13/M01 A2994 RMK A01 T01281007  RH  039%=      5-min Rain = 0
KTAS 190122Z 06005KT 13/M01 A2994 RMK A01 T01281007  RH  039%=      5-min Rain = 0
KTAS 190123Z 06004KT 13/M01 A2994 RMK A01 T01291008  RH  039%=      5-min Rain = 0
KTAS 190124Z 06004KT 13/M01 A2994 RMK A01 T01301007  RH  039%=      5-min Rain = 0
KTAS 190125Z 06004KT 13/M01 A2995 RMK A01 T01301007  RH  039%=      5-min Rain = 0
KTAS 190126Z 06004KT 13/M01 A2995 RMK A01 T01301007  RH  039%=      5-min Rain = 0
KTAS 190127Z 06004KT 13/M01 A2995 RMK A01 T01301007  RH  039%=      5-min Rain = 0
KTAS 190128Z 06003KT 13/M01 A2995 RMK A01 T01301007  RH  039%=      5-min Rain = 0
KTAS 190129Z 06003KT 13/M01 A2995 RMK A01 T01301007  RH  039%=      5-min Rain = 0
KTAS 190130Z 06003KT 13/M01 A2995 RMK A01 T01301007  RH  039%=      5-min Rain = 0
KTAS 190131Z 06003KT 13/M01 A2995 RMK A01 T01301007  RH  039%=      5-min Rain = 0
KTAS 190132Z 06003KT 13/M01 A2995 RMK A01 T01301007  RH  039%=      5-min Rain = 0
KTAS 190133Z 06003KT 13/M01 A2995 RMK A01 T01301007  RH  039%=      5-min Rain = 0
KTAS 190134Z 06003KT 13/M01 A2995 RMK A01 T01291007  RH  039%=      5-min Rain = 0
KTAS 190135Z 06003KT 13/M01 A2995 RMK A01 T01291007  RH  039%=      5-min Rain = 0
KTAS 190136Z 06003KT 13/M01 A2995 RMK A01 T01281008  RH  039%=      5-min Rain = 0
KTAS 190137Z 06003KT 13/M01 A2995 RMK A01 T01271008  RH  039%=      5-min Rain = 0
KTAS 190138Z 06003KT 13/M01 A2995 RMK A01 T01261008  RH  040%=      5-min Rain = 0
KTAS 190139Z 06003KT 13/M01 A2995 RMK A01 T01251008  RH  040%=      5-min Rain = 0
KTAS 190140Z 06003KT 12/M01 A2995 RMK A01 T01241009  RH  040%=      5-min Rain = 0
KTAS 190141Z 06003KT 12/M01 A2995 RMK A01 T01231008  RH  040%=      5-min Rain = 0
KTAS 190142Z 06003KT 12/M01 A2995 RMK A01 T01241008  RH  040%=      5-min Rain = 0
KTAS 190143Z 06003KT 13/M01 A2995 RMK A01 T01251008  RH  040%=      5-min Rain = 0
KTAS 190144Z 06003KT 13/M01 A2995 RMK A01 T01251007  RH  040%=      5-min Rain = 0
KTAS 190145Z 06003KT 13/M01 A2995 RMK A01 T01261007  RH  040%=      5-min Rain = 0
KTAS 190146Z 06003KT 13/M01 A2995 RMK A01 T01271008  RH  039%=      5-min Rain = 0
KTAS 190147Z 06003KT 13/M01 A2996 RMK A01 T01281008  RH  039%=      5-min Rain = 0
KTAS 190148Z 06003KT 13/M01 A2996 RMK A01 T01281009  RH  039%=      5-min Rain = 0
KTAS 190149Z 06003KT 13/M01 A2996 RMK A01 T01291009  RH  039%=      5-min Rain = 0
KTAS 190150Z 06002KT 13/M01 A2996 RMK A01 T01291009  RH  039%=      5-min Rain = 0
KTAS 190151Z 06002KT 13/M01 A2996 RMK A01 T01281009  RH  039%=      5-min Rain = 0
KTAS 190152Z 06002KT 13/M01 A2996 RMK A01 T01281009  RH  039%=      5-min Rain = 0
KTAS 190153Z 06002KT 13/M01 A2996 RMK A01 T01281008  RH  039%=      5-min Rain = 0
KTAS 190154Z 06003KT 13/M01 A2996 RMK A01 T01271007  RH  039%=      5-min Rain = 0
KTAS 190155Z 06003KT 13/M01 A2996 RMK A01 T01271007  RH  040%=      5-min Rain = 0
KTAS 190156Z 06003KT 13/M01 A2996 RMK A01 T01261008  RH  040%=      5-min Rain = 0
KTAS 190157Z 06003KT 13/M01 A2996 RMK A01 T01251008  RH  040%=      5-min Rain = 0
KTAS 190158Z 06004KT 12/M01 A2996 RMK A01 T01231009  RH  040%=      5-min Rain = 0
KTAS 190159Z 06004KT 12/M01 A2996 RMK A01 T01211010  RH  040%=      5-min Rain = 0
KTAS 190200Z 06004KT 12/M01 A2996 RMK A01 T01201010  RH  041%=      5-min Rain = 0
KTAS 190201Z 06004KT 12/M01 A2996 RMK A01 T01191009  RH  041%=      5-min Rain = 0
KTAS 190202Z 06004KT 12/M01 A2996 RMK A01 T01181009  RH  041%=      5-min Rain = 0
KTAS 190203Z 06004KT 12/M01 A2996 RMK A01 T01171009  RH  041%=      5-min Rain = 0
KTAS 190204Z 06003KT 12/M01 A2996 RMK A01 T01161009  RH  042%=      5-min Rain = 0
KTAS 190205Z 06003KT 12/M01 A2996 RMK A01 T01161009  RH  042%=      5-min Rain = 0
KTAS 190206Z 06003KT 12/M01 A2996 RMK A01 T01151009  RH  042%=      5-min Rain = 0
KTAS 190207Z 06003KT 12/M01 A2996 RMK A01 T01151008  RH  042%=      5-min Rain = 0
KTAS 190208Z 06003KT 11/M01 A2996 RMK A01 T01141008  RH  043%=      5-min Rain = 0
KTAS 190209Z 06003KT 11/M01 A2996 RMK A01 T01141008  RH  043%=      5-min Rain = 0
KTAS 190210Z 06003KT 11/M01 A2996 RMK A01 T01141008  RH  043%=      5-min Rain = 0
KTAS 190211Z 06003KT 11/M01 A2996 RMK A01 T01131008  RH  043%=      5-min Rain = 0
KTAS 190212Z 06003KT 11/M01 A2997 RMK A01 T01131008  RH  043%=      5-min Rain = 0
KTAS 190213Z 06003KT 11/M01 A2997 RMK A01 T01141007  RH  043%=      5-min Rain = 0
KTAS 190214Z 06003KT 12/M01 A2997 RMK A01 T01151007  RH  043%=      5-min Rain = 0
KTAS 190215Z 06003KT 12/M01 A2997 RMK A01 T01161007  RH  042%=      5-min Rain = 0
KTAS 190216Z 06004KT 12/M01 A2997 RMK A01 T01161008  RH  042%=      5-min Rain = 0
KTAS 190217Z 06004KT 12/M01 A2997 RMK A01 T01161009  RH  042%=      5-min Rain = 0
KTAS 190218Z 06004KT 11/M01 A2996 RMK A01 T01141010  RH  042%=      5-min Rain = 0
KTAS 190219Z 05004KT 11/M01 A2996 RMK A01 T01111011  RH  043%=      5-min Rain = 0
KTAS 190220Z 05005KT 11/M01 A2996 RMK A01 T01091011  RH  043%=      5-min Rain = 0
KTAS 190221Z 05005KT 11/M01 A2996 RMK A01 T01061011  RH  044%=      5-min Rain = 0
KTAS 190222Z 05005KT 10/M01 A2996 RMK A01 T01041010  RH  045%=      5-min Rain = 0
KTAS 190223Z 04005KT 10/M01 A2996 RMK A01 T01011009  RH  046%=      5-min Rain = 0
KTAS 190224Z 04005KT 10/M01 A2996 RMK A01 T00981008  RH  048%=      5-min Rain = 0
KTAS 190225Z 04005KT 10/M01 A2996 RMK A01 T00951008  RH  048%=      5-min Rain = 0
KTAS 190226Z 04005KT 09/M01 A2996 RMK A01 T00921009  RH  049%=      5-min Rain = 0
KTAS 190227Z 04006KT 09/M01 A2996 RMK A01 T00891010  RH  050%=      5-min Rain = 0
KTAS 190228Z 04005KT 09/M01 A2996 RMK A01 T00861011  RH  051%=      5-min Rain = 0
KTAS 190229Z 04005KT 08/M01 A2996 RMK A01 T00831011  RH  052%=      5-min Rain = 0
KTAS 190230Z 04005KT 08/M01 A2996 RMK A01 T00811010  RH  053%=      5-min Rain = 0
KTAS 190231Z 03005KT 08/M01 A2996 RMK A01 T00791009  RH  054%=      5-min Rain = 0
KTAS 190232Z 04005KT 08/M01 A2996 RMK A01 T00791008  RH  054%=      5-min Rain = 0
KTAS 190233Z 04005KT 08/M01 A2996 RMK A01 T00791007  RH  055%=      5-min Rain = 0
KTAS 190234Z 04005KT 08/M01 A2996 RMK A01 T00791006  RH  055%=      5-min Rain = 0
KTAS 190235Z 04005KT 08/M01 A2996 RMK A01 T00791006  RH  055%=      5-min Rain = 0
KTAS 190236Z 04005KT 08/M01 A2996 RMK A01 T00801005  RH  055%=      5-min Rain = 0
KTAS 190237Z 04005KT 08/M01 A2996 RMK A01 T00811005  RH  055%=      5-min Rain = 0
KTAS 190238Z 03005KT 08/M00 A2996 RMK A01 T00821004  RH  055%=      5-min Rain = 0
KTAS 190239Z 03005KT 08/M00 A2996 RMK A01 T00821004  RH  055%=      5-min Rain = 0
KTAS 190240Z 03005KT 08/M00 A2996 RMK A01 T00831003  RH  055%=      5-min Rain = 0
KTAS 190241Z 03005KT 08/M00 A2996 RMK A01 T00831003  RH  055%=      5-min Rain = 0
KTAS 190242Z 03006KT 08/M00 A2996 RMK A01 T00841003  RH  054%=      5-min Rain = 0
KTAS 190243Z 04006KT 08/M00 A2996 RMK A01 T00841002  RH  055%=      5-min Rain = 0
KTAS 190244Z 04006KT 08/M00 A2997 RMK A01 T00831003  RH  055%=      5-min Rain = 0
KTAS 190245Z 04005KT 08/M00 A2997 RMK A01 T00811003  RH  055%=      5-min Rain = 0
KTAS 190246Z 04005KT 08/M00 A2997 RMK A01 T00791002  RH  056%=      5-min Rain = 0
KTAS 190247Z 04005KT 08/M00 A2997 RMK A01 T00781002  RH  057%=      5-min Rain = 0
KTAS 190248Z 04005KT 08/M00 A2997 RMK A01 T00771001  RH  058%=      5-min Rain = 0
KTAS 190249Z 04005KT 08/00 A2997 RMK A01 T00760000  RH  059%=      5-min Rain = 0
KTAS 190250Z 05004KT 08/00 A2997 RMK A01 T00760001  RH  059%=      5-min Rain = 0
KTAS 190251Z 05004KT 08/00 A2997 RMK A01 T00760001  RH  059%=      5-min Rain = 0
KTAS 190252Z 05004KT 08/00 A2997 RMK A01 T00770001  RH  059%=      5-min Rain = 0
KTAS 190253Z 05004KT 08/00 A2997 RMK A01 T00780002  RH  058%=      5-min Rain = 0
KTAS 190254Z 05004KT 08/00 A2997 RMK A01 T00800002  RH  058%=      5-min Rain = 0
KTAS 190255Z 05004KT 08/00 A2997 RMK A01 T00810002  RH  057%=      5-min Rain = 0
KTAS 190256Z 05004KT 08/00 A2997 RMK A01 T00820002  RH  057%=      5-min Rain = 0
KTAS 190257Z 05004KT 08/00 A2997 RMK A01 T00830001  RH  056%=      5-min Rain = 0
KTAS 190258Z 05004KT 08/00 A2997 RMK A01 T00840001  RH  056%=      5-min Rain = 0
KTAS 190259Z 06004KT 08/00 A2997 RMK A01 T00840001  RH  056%=      5-min Rain = 0
KTAS 190300Z 06003KT 08/00 A2997 RMK A01 T00830001  RH  056%=      5-min Rain = 0
KTAS 190301Z 06003KT 08/00 A2997 RMK A01 T00830001  RH  056%=      5-min Rain = 0
KTAS 190302Z 06004KT 08/00 A2997 RMK A01 T00830002  RH  056%=      5-min Rain = 0
KTAS 190303Z 07004KT 08/00 A2997 RMK A01 T00840002  RH  057%=      5-min Rain = 0
KTAS 190304Z 07004KT 08/00 A2997 RMK A01 T00840002  RH  056%=      5-min Rain = 0
KTAS 190305Z 08004KT 08/00 A2997 RMK A01 T00840001  RH  056%=      5-min Rain = 0
KTAS 190306Z 08004KT 09/00 A2997 RMK A01 T00870001  RH  055%=      5-min Rain = 0
KTAS 190307Z 08005KT 09/00 A2997 RMK A01 T00900001  RH  053%=      5-min Rain = 0
KTAS 190308Z 07004KT 09/00 A2997 RMK A01 T00930000  RH  052%=      5-min Rain = 0
KTAS 190309Z 07004KT 09/00 A2997 RMK A01 T009400-0  RH  052%=      5-min Rain = 0
KTAS 190310Z 06004KT 10/00 A2997 RMK A01 T009600-0  RH  051%=      5-min Rain = 0
KTAS 190311Z 06004KT 10/M00 A2997 RMK A01 T00971001  RH  051%=      5-min Rain = 0
KTAS 190312Z 06003KT 10/M00 A2997 RMK A01 T00971001  RH  051%=      5-min Rain = 0
KTAS 190313Z 06003KT 10/M00 A2997 RMK A01 T00971001  RH  051%=      5-min Rain = 0
KTAS 190314Z 06003KT 10/M00 A2998 RMK A01 T00971002  RH  050%=      5-min Rain = 0
KTAS 190315Z 06003KT 10/M00 A2998 RMK A01 T00991002  RH  050%=      5-min Rain = 0
KTAS 190316Z 06004KT 10/M00 A2998 RMK A01 T01021002  RH  049%=      5-min Rain = 0
KTAS 190317Z 06004KT 11/M00 A2998 RMK A01 T01051003  RH  047%=      5-min Rain = 0
KTAS 190318Z 06004KT 11/M00 A2998 RMK A01 T01081003  RH  046%=      5-min Rain = 0
KTAS 190319Z 06004KT 11/M00 A2998 RMK A01 T01111003  RH  045%=      5-min Rain = 0
KTAS 190320Z 06004KT 11/M00 A2997 RMK A01 T01121003  RH  045%=      5-min Rain = 0
KTAS 190321Z 06005KT 11/M00 A2997 RMK A01 T01121003  RH  045%=      5-min Rain = 0
KTAS 190322Z 06005KT 11/M00 A2997 RMK A01 T01111003  RH  045%=      5-min Rain = 0
KTAS 190323Z 06005KT 11/M00 A2997 RMK A01 T01091003  RH  046%=      5-min Rain = 0
KTAS 190324Z 06005KT 11/M00 A2997 RMK A01 T01071003  RH  047%=      5-min Rain = 0
KTAS 190325Z 06005KT 11/M00 A2997 RMK A01 T01051003  RH  047%=      5-min Rain = 0
KTAS 190326Z 06004KT 10/M00 A2997 RMK A01 T01041003  RH  047%=      5-min Rain = 0
KTAS 190327Z 06004KT 10/M00 A2998 RMK A01 T01031004  RH  047%=      5-min Rain = 0
KTAS 190328Z 06004KT 10/M00 A2998 RMK A01 T01031003  RH  047%=      5-min Rain = 0
KTAS 190329Z 06003KT 10/M00 A2998 RMK A01 T01041004  RH  047%=      5-min Rain = 0
KTAS 190330Z 06003KT 11/M00 A2998 RMK A01 T01051004  RH  047%=      5-min Rain = 0
KTAS 190331Z 06004KT 11/M00 A2998 RMK A01 T01071004  RH  046%=      5-min Rain = 0
KTAS 190332Z 06004KT 11/M00 A2998 RMK A01 T01091004  RH  046%=      5-min Rain = 0
KTAS 190333Z 06004KT 11/M00 A2998 RMK A01 T01121004  RH  045%=      5-min Rain = 0
KTAS 190334Z 06004KT 11/M01 A2998 RMK A01 T01131005  RH  044%=      5-min Rain = 0
KTAS 190335Z 06004KT 11/M01 A2998 RMK A01 T01141005  RH  044%=      5-min Rain = 0
KTAS 190336Z 06004KT 12/M01 A2998 RMK A01 T01151005  RH  044%=      5-min Rain = 0
KTAS 190337Z 06004KT 12/M01 A2998 RMK A01 T01151005  RH  044%=      5-min Rain = 0
KTAS 190338Z 06004KT 12/M01 A2998 RMK A01 T01151005  RH  044%=      5-min Rain = 0
KTAS 190339Z 06004KT 12/M01 A2998 RMK A01 T01151005  RH  044%=      5-min Rain = 0
KTAS 190340Z 06005KT 12/M00 A2998 RMK A01 T01151004  RH  044%=      5-min Rain = 0
KTAS 190341Z 06005KT 11/M01 A2998 RMK A01 T01141005  RH  044%=      5-min Rain = 0
KTAS 190342Z 06005KT 11/M01 A2998 RMK A01 T01131005  RH  044%=      5-min Rain = 0
KTAS 190343Z 06005KT 11/M01 A2998 RMK A01 T01091005  RH  045%=      5-min Rain = 0
KTAS 190344Z 06005KT 11/M01 A2998 RMK A01 T01061005  RH  046%=      5-min Rain = 0
KTAS 190345Z 05005KT 10/M01 A2998 RMK A01 T01021005  RH  047%=      5-min Rain = 0
KTAS 190346Z 05004KT 10/M01 A2998 RMK A01 T01001005  RH  048%=      5-min Rain = 0
KTAS 190347Z 05004KT 10/M01 A2998 RMK A01 T00981005  RH  049%=      5-min Rain = 0
KTAS 190348Z 05004KT 10/M00 A2998 RMK A01 T00971004  RH  049%=      5-min Rain = 0
KTAS 190349Z 05003KT 10/M00 A2998 RMK A01 T00971004  RH  049%=      5-min Rain = 0
KTAS 190350Z 05003KT 10/M00 A2998 RMK A01 T00961004  RH  049%=      5-min Rain = 0
KTAS 190351Z 05003KT 10/M00 A2998 RMK A01 T00961004  RH  050%=      5-min Rain = 0
KTAS 190352Z 05003KT 10/M00 A2998 RMK A01 T00951004  RH  050%=      5-min Rain = 0
KTAS 190353Z 05004KT 10/M00 A2998 RMK A01 T00951004  RH  050%=      5-min Rain = 0
KTAS 190354Z 05003KT 10/M00 A2998 RMK A01 T00951004  RH  050%=      5-min Rain = 0
KTAS 190355Z 05003KT 10/M00 A2998 RMK A01 T00951004  RH  050%=      5-min Rain = 0
KTAS 190356Z 05002KT 09/M01 A2998 RMK A01 T00921006  RH  050%=      5-min Rain = 0
KTAS 190357Z 05002KT 08/M01 A2998 RMK A01 T00841007  RH  053%=      5-min Rain = 0
KTAS 190358Z 05002KT 08/M00 A2998 RMK A01 T00781003  RH  057%=      5-min Rain = 0
KTAS 190359Z 05002KT 08/00 A2998 RMK A01 T00770001  RH  059%=      5-min Rain = 0
KTAS 190400Z 05002KT 08/00 A2998 RMK A01 T00780003  RH  059%=      5-min Rain = 0
KTAS 190401Z 05002KT 08/00 A2998 RMK A01 T00780003  RH  059%=      5-min Rain = 0
KTAS 190402Z 05003KT 08/00 A2998 RMK A01 T00790002  RH  058%=      5-min Rain = 0
KTAS 190403Z 05003KT 08/00 A2998 RMK A01 T00790002  RH  058%=      5-min Rain = 0
KTAS 190404Z 05002KT 08/00 A2998 RMK A01 T00780002  RH  058%=      5-min Rain = 0
KTAS 190405Z 05002KT 08/00 A2998 RMK A01 T00770002  RH  059%=      5-min Rain = 0
KTAS 190406Z 05002KT 07/00 A2998 RMK A01 T00740002  RH  060%=      5-min Rain = 0
KTAS 190407Z 05002KT 07/00 A2998 RMK A01 T00720003  RH  062%=      5-min Rain = 0
KTAS 190408Z 05001KT 07/01 A2998 RMK A01 T00710005  RH  063%=      5-min Rain = 0
KTAS 190409Z 05001KT 07/01 A2998 RMK A01 T00710005  RH  063%=      5-min Rain = 0
KTAS 190410Z 05001KT 07/01 A2998 RMK A01 T00720005  RH  062%=      5-min Rain = 0
KTAS 190411Z 06002KT 07/01 A2998 RMK A01 T00740005  RH  062%=      5-min Rain = 0
KTAS 190412Z 07002KT 08/01 A2998 RMK A01 T00760005  RH  061%=      5-min Rain = 0
KTAS 190413Z 07002KT 08/01 A2998 RMK A01 T00790005  RH  060%=      5-min Rain = 0
KTAS 190414Z 07002KT 08/01 A2998 RMK A01 T00810005  RH  059%=      5-min Rain = 0
KTAS 190415Z 07002KT 08/01 A2998 RMK A01 T00830005  RH  058%=      5-min Rain = 0
KTAS 190416Z 06002KT 08/01 A2998 RMK A01 T00830005  RH  058%=      5-min Rain = 0
KTAS 190417Z 06002KT 08/01 A2998 RMK A01 T00820005  RH  058%=      5-min Rain = 0
KTAS 190418Z 06002KT 08/00 A2998 RMK A01 T00810004  RH  059%=      5-min Rain = 0
KTAS 190419Z 06002KT 08/01 A2998 RMK A01 T00790005  RH  059%=      5-min Rain = 0
KTAS 190420Z 06002KT 08/01 A2998 RMK A01 T00780005  RH  060%=      5-min Rain = 0
KTAS 190421Z 06002KT 08/01 A2998 RMK A01 T00770005  RH  060%=      5-min Rain = 0
KTAS 190422Z 06002KT 08/01 A2998 RMK A01 T00770005  RH  060%=      5-min Rain = 0
KTAS 190423Z 06002KT 08/01 A2998 RMK A01 T00770005  RH  060%=      5-min Rain = 0
KTAS 190424Z 06002KT 08/01 A2998 RMK A01 T00760005  RH  061%=      5-min Rain = 0
KTAS 190425Z 06001KT 08/01 A2998 RMK A01 T00780005  RH  060%=      5-min Rain = 0
KTAS 190426Z 06001KT 08/01 A2998 RMK A01 T00790006  RH  060%=      5-min Rain = 0
KTAS 190427Z 06000KT 08/00 A2998 RMK A01 T00780004  RH  060%=      5-min Rain = 0
KTAS 190428Z 06000KT 08/00 A2998 RMK A01 T00750003  RH  060%=      5-min Rain = 0
KTAS 190429Z 00000KT 07/00 A2998 RMK A01 T00730004  RH  062%=      5-min Rain = 0
KTAS 190430Z 08001KT 07/01 A2998 RMK A01 T00730006  RH  062%=      5-min Rain = 0
KTAS 190431Z 08002KT 08/01 A2998 RMK A01 T00750005  RH  061%=      5-min Rain = 0
KTAS 190432Z 08002KT 08/01 A2998 RMK A01 T00770005  RH  060%=      5-min Rain = 0
KTAS 190433Z 08002KT 08/01 A2998 RMK A01 T00780005  RH  060%=      5-min Rain = 0
KTAS 190434Z 08002KT 08/00 A2998 RMK A01 T00780004  RH  059%=      5-min Rain = 0
KTAS 190435Z 07002KT 08/00 A2998 RMK A01 T00810004  RH  058%=      5-min Rain = 0
KTAS 190436Z 07003KT 08/00 A2998 RMK A01 T00830004  RH  057%=      5-min Rain = 0
KTAS 190437Z 07003KT 08/00 A2998 RMK A01 T00810003  RH  058%=      5-min Rain = 0
KTAS 190438Z 07003KT 08/00 A2998 RMK A01 T00780004  RH  059%=      5-min Rain = 0
KTAS 190439Z 07003KT 08/01 A2998 RMK A01 T00760005  RH  060%=      5-min Rain = 0
KTAS 190440Z 07003KT 08/01 A2998 RMK A01 T00750005  RH  061%=      5-min Rain = 0
KTAS 190441Z 07002KT 08/00 A2998 RMK A01 T00750004  RH  061%=      5-min Rain = 0
KTAS 190442Z 07002KT 08/00 A2998 RMK A01 T00750004  RH  061%=      5-min Rain = 0
KTAS 190443Z 07001KT 08/00 A2998 RMK A01 T00770004  RH  060%=      5-min Rain = 0
KTAS 190444Z 07001KT 08/00 A2998 RMK A01 T00770004  RH  060%=      5-min Rain = 0
KTAS 190445Z 00000KT 08/00 A2998 RMK A01 T00760003  RH  060%=      5-min Rain = 0
KTAS 190446Z 07000KT 08/00 A2998 RMK A01 T00750003  RH  060%=      5-min Rain = 0
KTAS 190447Z 00000KT 07/00 A2998 RMK A01 T00730002  RH  061%=      5-min Rain = 0
KTAS 190448Z 00000KT 07/00 A2998 RMK A01 T00710002  RH  061%=      5-min Rain = 0
KTAS 190449Z 07001KT 07/00 A2998 RMK A01 T00700002  RH  062%=      5-min Rain = 0
KTAS 190450Z 07001KT 07/00 A2998 RMK A01 T00700002  RH  062%=      5-min Rain = 0
KTAS 190451Z 07001KT 07/00 A2998 RMK A01 T00700003  RH  062%=      5-min Rain = 0
KTAS 190452Z 07001KT 07/00 A2998 RMK A01 T00710004  RH  062%=      5-min Rain = 0
KTAS 190453Z 07001KT 07/00 A2998 RMK A01 T00730003  RH  061%=      5-min Rain = 0
KTAS 190454Z 07002KT 07/00 A2998 RMK A01 T00720003  RH  061%=      5-min Rain = 0
KTAS 190455Z 07002KT 07/00 A2997 RMK A01 T00720003  RH  062%=      5-min Rain = 0
KTAS 190456Z 07002KT 07/00 A2997 RMK A01 T00700003  RH  062%=      5-min Rain = 0
KTAS 190457Z 07002KT 07/00 A2997 RMK A01 T00680002  RH  063%=      5-min Rain = 0
KTAS 190458Z 07002KT 07/00 A2997 RMK A01 T00670002  RH  063%=      5-min Rain = 0
KTAS 190459Z 07001KT 07/00 A2997 RMK A01 T00670003  RH  064%=      5-min Rain = 0
KTAS 190500Z 07001KT 07/00 A2998 RMK A01 T00660003  RH  064%=      5-min Rain = 0
KTAS 190501Z 07000KT 07/00 A2998 RMK A01 T00660004  RH  064%=      5-min Rain = 0
KTAS 190502Z 00000KT 07/00 A2998 RMK A01 T00650004  RH  065%=      5-min Rain = 0
KTAS 190503Z 00000KT 06/00 A2998 RMK A01 T00640003  RH  065%=      5-min Rain = 0
KTAS 190504Z 00000KT 06/00 A2998 RMK A01 T00620002  RH  065%=      5-min Rain = 0
KTAS 190505Z 07000KT 06/00 A2998 RMK A01 T00610003  RH  066%=      5-min Rain = 0
KTAS 190506Z 07001KT 06/00 A2998 RMK A01 T00600003  RH  067%=      5-min Rain = 0
KTAS 190507Z 07001KT 06/00 A2998 RMK A01 T00590004  RH  068%=      5-min Rain = 0
KTAS 190508Z 07001KT 06/01 A2997 RMK A01 T00600005  RH  068%=      5-min Rain = 0
KTAS 190509Z 07001KT 06/01 A2997 RMK A01 T00600005  RH  068%=      5-min Rain = 0
KTAS 190510Z 07001KT 06/01 A2997 RMK A01 T00600005  RH  068%=      5-min Rain = 0
KTAS 190511Z 06002KT 06/01 A2997 RMK A01 T00600005  RH  068%=      5-min Rain = 0
KTAS 190512Z 06003KT 06/01 A2997 RMK A01 T00590005  RH  068%=      5-min Rain = 0
KTAS 190513Z 06003KT 06/01 A2997 RMK A01 T00580005  RH  069%=      5-min Rain = 0
KTAS 190514Z 06002KT 06/00 A2997 RMK A01 T00560004  RH  069%=      5-min Rain = 0
KTAS 190515Z 06003KT 06/00 A2997 RMK A01 T00560004  RH  069%=      5-min Rain = 0
KTAS 190516Z 06003KT 06/01 A2997 RMK A01 T00560005  RH  070%=      5-min Rain = 0
KTAS 190517Z 06003KT 06/00 A2997 RMK A01 T00560004  RH  069%=      5-min Rain = 0
KTAS 190518Z 06003KT 06/00 A2997 RMK A01 T00550004  RH  070%=      5-min Rain = 0
KTAS 190519Z 06003KT 06/00 A2997 RMK A01 T00550004  RH  070%=      5-min Rain = 0
KTAS 190520Z 06003KT 06/00 A2997 RMK A01 T00550004  RH  070%=      5-min Rain = 0
KTAS 190521Z 06003KT 05/00 A2997 RMK A01 T00540004  RH  070%=      5-min Rain = 0
KTAS 190522Z 06003KT 05/00 A2997 RMK A01 T00530003  RH  070%=      5-min Rain = 0
KTAS 190523Z 05003KT 05/00 A2997 RMK A01 T00510002  RH  070%=      5-min Rain = 0
KTAS 190524Z 05003KT 05/00 A2997 RMK A01 T00510003  RH  071%=      5-min Rain = 0
KTAS 190525Z 05002KT 05/00 A2997 RMK A01 T00510003  RH  071%=      5-min Rain = 0
KTAS 190526Z 05002KT 05/00 A2997 RMK A01 T00500002  RH  071%=      5-min Rain = 0
KTAS 190527Z 05002KT 05/00 A2998 RMK A01 T00500003  RH  071%=      5-min Rain = 0
KTAS 190528Z 05002KT 05/00 A2998 RMK A01 T00510003  RH  071%=      5-min Rain = 0
KTAS 190529Z 05001KT 05/00 A2998 RMK A01 T00510002  RH  071%=      5-min Rain = 0
KTAS 190530Z 05001KT 05/00 A2998 RMK A01 T00500002  RH  071%=      5-min Rain = 0
KTAS 190531Z 05001KT 05/00 A2998 RMK A01 T00480001  RH  071%=      5-min Rain = 0
KTAS 190532Z 05001KT 05/00 A2998 RMK A01 T00470000  RH  072%=      5-min Rain = 0
KTAS 190533Z 05002KT 05/00 A2997 RMK A01 T00470002  RH  073%=      5-min Rain = 0
KTAS 190534Z 05002KT 05/01 A2997 RMK A01 T00480005  RH  074%=      5-min Rain = 0
KTAS 190535Z 05002KT 05/01 A2997 RMK A01 T00500005  RH  073%=      5-min Rain = 0
KTAS 190536Z 05001KT 05/00 A2997 RMK A01 T00500004  RH  072%=      5-min Rain = 0
KTAS 190537Z 05001KT 05/00 A2997 RMK A01 T00500004  RH  072%=      5-min Rain = 0
KTAS 190538Z 05001KT 05/01 A2997 RMK A01 T00510005  RH  072%=      5-min Rain = 0
KTAS 190539Z 05001KT 05/01 A2997 RMK A01 T00510005  RH  072%=      5-min Rain = 0
KTAS 190540Z 05001KT 05/01 A2997 RMK A01 T00500005  RH  073%=      5-min Rain = 0
KTAS 190541Z 05001KT 05/01 A2997 RMK A01 T00500006  RH  073%=      5-min Rain = 0
KTAS 190542Z 05002KT 05/01 A2997 RMK A01 T00500006  RH  073%=      5-min Rain = 0
KTAS 190543Z 06002KT 05/01 A2997 RMK A01 T00500005  RH  073%=      5-min Rain = 0
KTAS 190544Z 06002KT 05/01 A2997 RMK A01 T00490005  RH  073%=      5-min Rain = 0
KTAS 190545Z 06002KT 05/01 A2997 RMK A01 T00500006  RH  073%=      5-min Rain = 0
KTAS 190546Z 06001KT 05/01 A2997 RMK A01 T00500006  RH  073%=      5-min Rain = 0
KTAS 190547Z 06001KT 05/01 A2997 RMK A01 T00490005  RH  073%=      5-min Rain = 0
KTAS 190548Z 06002KT 05/01 A2997 RMK A01 T00480005  RH  073%=      5-min Rain = 0
KTAS 190549Z 06002KT 05/01 A2997 RMK A01 T00480006  RH  074%=      5-min Rain = 0
KTAS 190550Z 06002KT 05/01 A2997 RMK A01 T00490007  RH  074%=      5-min Rain = 0
KTAS 190551Z 06002KT 05/01 A2997 RMK A01 T00500008  RH  074%=      5-min Rain = 0
KTAS 190552Z 06002KT 05/01 A2997 RMK A01 T00510008  RH  074%=      5-min Rain = 0
KTAS 190553Z 07002KT 05/01 A2997 RMK A01 T00520008  RH  073%=      5-min Rain = 0
KTAS 190554Z 07002KT 05/01 A2997 RMK A01 T00520008  RH  073%=      5-min Rain = 0
KTAS 190555Z 07002KT 05/01 A2997 RMK A01 T00530008  RH  073%=      5-min Rain = 0
KTAS 190556Z 07002KT 05/01 A2997 RMK A01 T00530007  RH  072%=      5-min Rain = 0
KTAS 190557Z 07002KT 05/01 A2997 RMK A01 T00530007  RH  072%=      5-min Rain = 0
KTAS 190558Z 07002KT 05/01 A2997 RMK A01 T00520007  RH  073%=      5-min Rain = 0
KTAS 190559Z 07001KT 05/01 A2997 RMK A01 T00520007  RH  073%=      5-min Rain = 0

Page generated in 0.0971 seconds.